GFSCGP_sfc_wetblb_000.txt.gz
Wetbulb
43.47 39.66 35.60 36.33 38.49 38.50 37.84 36.05 34.19 34.53 39.57 39.92 38.10 38.40 40.27 43.82 44.23 43.46 43.90 44.69 45.10 45.82 48.12 49.61 51.44 51.81 52.57 53.86 54.15 54.27 54.49 54.59 52.86 50.32 50.63 51.17 49.98 51.54 48.50 47.00 46.71 46.19 45.98 45.22
40.55 36.72 39.84 42.79 42.12 40.82 39.31 36.49 34.97 37.82 41.34 40.51 39.44 37.09 39.49 41.92 42.27 43.56 44.04 44.08 45.08 45.65 46.69 47.87 48.09 48.84 49.98 50.96 51.96 50.97 50.57 50.13 50.37 50.27 49.55 51.37 50.96 48.16 46.57 45.56 43.65 44.08 44.02 43.95
37.80 39.55 43.56 42.37 41.20 40.59 38.75 36.61 35.80 36.65 40.90 40.42 38.99 37.00 38.16 42.54 44.61 45.58 45.30 44.73 45.57 45.67 46.05 46.58 46.00 45.16 46.39 46.66 46.42 47.08 47.11 47.45 48.15 49.85 48.74 45.97 45.61 45.52 43.44 43.00 41.10 42.17 43.08 43.23
40.80 43.19 42.08 40.46 40.23 39.84 36.38 40.48 39.55 38.51 36.56 32.97 36.77 29.64 35.26 38.80 41.26 43.18 43.64 43.64 44.62 45.51 45.49 45.01 44.31 44.05 43.78 43.17 44.14 45.35 46.27 46.07 46.32 45.82 45.54 44.62 43.16 41.94 41.86 40.52 39.62 40.65 42.27 42.50
39.13 39.99 40.37 39.86 39.14 41.59 39.26 42.01 39.50 37.46 34.74 33.46 34.14 31.69 32.50 39.33 39.23 41.40 42.61 44.14 44.09 43.67 44.67 45.95 45.19 45.36 44.58 45.12 44.44 43.82 45.27 45.37 44.79 44.36 44.36 43.01 40.32 40.72 40.60 39.38 39.97 40.07 41.45 41.84
40.35 42.66 41.68 39.98 42.51 41.75 43.13 41.21 39.55 37.28 35.00 28.01 33.25 31.89 30.91 35.45 38.98 40.97 42.52 44.45 44.58 44.60 43.85 45.18 46.32 46.77 45.63 44.03 43.14 43.36 43.95 42.78 43.03 42.17 41.96 40.95 40.38 39.50 39.36 40.07 40.00 40.43 40.16 40.58
39.62 39.81 41.47 42.51 39.92 41.16 40.53 36.67 29.38 28.56 25.40 26.24 35.15 32.51 33.94 39.72 41.10 43.46 43.26 43.63 43.91 43.33 43.38 44.43 45.31 44.83 42.50 41.68 41.83 42.81 41.31 40.41 41.17 41.16 40.95 40.52 40.14 39.42 40.07 39.86 39.16 39.55 40.75 40.05
34.03 31.08 38.78 42.10 39.12 37.22 36.01 36.29 29.43 24.97 22.35 27.91 34.54 29.81 34.57 40.66 42.81 44.48 44.39 43.84 43.46 43.55 43.74 43.71 42.05 41.92 41.64 41.67 40.05 39.97 39.94 39.54 40.28 40.41 40.18 40.30 40.17 39.92 40.51 40.39 39.96 40.28 38.80 38.09
33.88 33.89 40.16 40.94 41.20 40.68 36.57 32.15 36.38 30.23 28.40 26.67 29.17 33.68 38.02 40.07 40.77 42.43 42.85 42.67 41.85 40.87 41.05 41.40 41.73 41.32 41.22 41.40 40.50 39.12 39.27 38.95 38.92 38.78 38.96 38.48 38.58 38.01 37.94 38.28 38.30 38.11 38.15 39.48
38.95 32.82 38.08 40.57 42.23 41.77 38.18 39.71 31.03 28.65 22.94 21.45 26.62 29.15 30.97 36.26 39.04 40.99 40.00 39.93 39.84 40.26 40.82 40.76 40.30 40.24 40.16 40.01 40.64 40.21 37.98 35.73 35.52 35.46 36.16 36.09 35.57 35.93 36.04 35.97 35.88 36.73 37.21 38.16
38.42 35.72 35.04 38.83 37.03 34.87 37.02 34.50 33.20 32.40 27.37 21.72 19.12 26.99 35.51 38.11 40.62 38.89 38.62 39.42 39.47 39.43 39.25 39.24 38.77 38.58 37.83 39.10 38.69 37.41 35.10 34.82 34.47 34.26 34.86 34.56 34.79 35.00 35.07 34.96 35.41 35.47 36.27 37.31
38.71 34.99 28.37 33.85 39.04 40.16 37.26 34.79 32.97 24.60 26.22 24.57 21.64 25.74 36.31 36.78 39.21 39.12 38.73 39.04 38.72 39.07 38.67 38.43 38.06 37.94 36.75 35.75 35.78 34.29 33.87 34.18 33.76 33.58 33.98 33.83 34.28 34.39 33.95 33.72 33.99 34.62 34.49 34.87
39.36 32.80 27.74 32.04 35.73 37.52 35.16 36.60 34.48 31.76 28.60 27.34 20.89 25.67 37.71 37.99 37.66 38.57 37.53 38.10 38.55 38.58 37.92 37.61 36.76 36.32 35.87 35.01 34.22 34.94 35.36 33.47 32.42 32.09 31.90 33.20 33.90 33.61 33.21 32.36 32.81 33.42 33.14 33.74
42.18 34.87 31.37 27.80 30.65 32.82 31.42 35.09 34.41 32.81 24.66 26.31 26.11 28.76 34.78 35.49 36.12 36.96 37.63 37.72 37.33 37.54 37.92 36.39 35.67 34.93 33.91 34.45 35.97 34.89 33.47 33.09 32.72 31.76 31.92 32.80 33.32 33.69 33.26 33.12 32.83 33.24 34.34 34.71
38.12 32.00 32.08 32.83 33.95 33.73 32.49 32.91 34.47 32.83 31.77 28.87 30.23 30.39 34.16 36.52 36.37 37.34 38.00 37.57 37.26 36.98 36.75 36.11 34.39 32.34 34.24 35.05 33.41 33.08 32.56 33.08 32.91 32.22 32.00 32.96 34.00 34.07 33.90 33.81 33.90 34.06 34.32 35.96
36.34 28.99 29.41 30.68 33.75 32.89 31.36 33.07 33.01 33.16 33.02 33.07 32.13 32.48 37.62 37.70 37.88 37.32 37.49 37.22 36.49 36.43 37.18 37.07 34.98 34.81 34.19 33.34 32.29 32.14 32.19 32.30 32.74 31.90 31.90 33.98 34.26 34.19 33.65 33.75 33.61 34.04 36.31 32.71
30.90 28.67 25.96 23.18 28.98 27.70 24.55 31.17 32.69 32.60 33.65 33.95 30.16 34.84 37.26 36.67 37.51 37.64 36.95 37.19 36.63 36.52 37.67 36.42 35.80 33.50 32.92 32.18 32.14 31.31 31.50 32.06 31.66 31.72 32.64 33.64 33.81 33.48 32.99 33.29 32.99 32.83 32.05 30.57
28.89 27.08 23.25 21.54 21.93 17.04 31.59 34.68 35.64 34.85 35.79 36.92 35.61 36.45 38.01 37.84 37.70 38.56 38.30 37.83 36.77 36.56 36.95 35.97 34.43 31.78 31.14 31.25 31.19 31.09 30.72 30.75 30.70 31.25 31.66 33.10 32.85 32.36 32.22 32.04 32.13 31.80 31.65 30.52
33.91 26.65 23.74 21.07 19.86 26.75 31.10 36.14 35.48 34.30 33.86 38.15 36.82 36.56 37.33 37.05 36.97 37.02 38.83 37.99 37.49 36.75 35.90 35.97 34.44 31.02 30.19 30.45 30.70 30.02 29.91 29.87 30.28 30.74 30.92 31.82 32.34 31.57 31.47 31.50 30.78 30.74 30.65 28.06
33.41 27.99 25.18 17.41 16.40 15.96 29.66 34.84 39.05 37.64 29.72 38.61 38.28 36.69 36.46 36.08 29.36 37.44 38.15 37.97 37.16 36.99 35.25 33.75 31.44 31.07 29.73 30.02 30.01 29.76 29.99 29.95 29.59 30.81 31.04 31.83 31.92 31.09 30.81 30.42 29.42 29.04 26.00 27.01
26.71 24.84 19.15 16.09 14.61 24.46 32.41 37.79 39.10 29.21 31.20 38.95 38.89 38.12 36.11 35.10 37.41 37.54 37.29 37.14 36.72 34.84 32.76 32.52 31.70 30.82 30.54 30.72 31.27 30.16 29.61 29.34 30.70 31.17 30.95 31.11 31.03 30.27 29.67 28.31 27.42 25.34 25.06 24.60
29.93 25.06 22.66 21.61 15.81 21.65 36.32 37.64 33.10 37.14 36.25 38.99 39.13 38.52 38.42 37.61 36.71 37.67 38.70 34.48 32.46 32.07 31.99 31.72 30.89 30.97 31.31 31.08 30.17 29.21 28.48 30.33 30.41 30.35 30.10 30.00 29.76 29.97 29.45 26.53 24.65 25.10 23.56 22.28
29.22 30.90 27.38 28.50 28.34 35.34 37.80 37.85 39.35 39.44 38.51 39.41 39.37 39.95 40.75 37.65 37.94 39.54 33.60 33.14 31.67 31.81 31.66 31.15 31.09 31.25 31.13 30.33 29.69 28.65 29.72 30.35 30.03 29.68 29.59 29.58 29.47 28.96 28.23 25.31 23.62 22.91 21.68 18.54
34.89 36.28 30.25 32.26 36.19 37.04 38.52 39.89 40.85 41.49 40.39 41.01 41.08 40.83 40.36 39.03 39.15 33.96 31.32 31.47 31.14 30.90 31.15 30.69 30.00 28.82 28.85 30.06 30.07 29.99 30.17 29.77 29.18 29.48 29.12 28.73 28.06 28.29 28.08 26.26 25.74 23.65 18.92 17.67
34.70 37.27 34.09 32.87 37.39 37.70 39.83 41.00 41.76 42.05 42.27 41.74 41.84 41.33 40.91 38.33 33.50 33.00 32.15 31.57 31.32 31.37 30.91 30.47 29.44 28.61 28.98 29.64 29.98 30.11 29.38 28.99 29.10 29.80 29.74 28.66 26.90 27.34 27.46 25.63 25.28 24.65 23.74 22.59
37.11 35.86 31.81 31.42 38.58 37.82 38.18 40.32 42.02 42.10 42.16 42.22 41.00 38.70 35.09 34.23 33.07 32.95 31.69 32.06 31.62 30.47 30.05 29.58 29.27 28.69 29.13 29.16 28.67 28.54 28.97 28.97 28.12 29.82 30.24 28.70 29.79 31.22 28.48 26.19 26.41 29.06 28.81 28.10

GFSCGP_sfc_wetblb_006.txt.gz
Wetbulb
50.14 45.98 44.39 46.86 46.86 46.37 45.66 44.82 43.56 46.38 49.25 49.09 48.31 48.58 49.67 53.04 54.94 55.50 56.28 56.49 57.10 57.77 59.76 61.52 62.81 63.89 64.49 65.26 64.52 64.24 63.19 63.55 64.31 62.45 61.12 59.78 59.50 58.29 56.77 56.42 55.64 55.30 55.24 54.93
46.95 44.80 47.16 48.75 47.29 46.73 45.89 44.43 44.88 46.16 48.44 49.21 49.09 48.27 50.28 51.46 52.42 55.04 56.06 56.83 57.13 57.45 59.01 60.44 62.17 63.19 63.63 63.49 63.72 63.55 63.14 63.40 62.19 61.36 60.78 61.16 61.41 58.03 55.92 56.03 55.27 54.79 54.20 54.07
45.98 47.20 49.15 48.42 47.42 46.49 46.70 45.41 45.61 44.85 47.35 49.54 49.22 47.15 48.77 50.67 52.31 53.17 55.21 56.70 57.33 58.11 58.67 60.11 61.46 62.70 63.74 63.48 63.82 63.18 62.37 60.41 59.53 58.72 59.14 57.83 57.70 56.90 57.34 55.92 55.52 54.53 54.60 54.14
48.01 48.56 48.06 48.13 46.38 47.05 44.57 47.21 46.99 46.02 45.58 42.10 47.80 41.30 47.42 49.95 50.39 52.27 53.57 55.58 56.92 58.47 60.16 60.94 61.72 62.52 63.16 63.48 63.09 61.23 59.07 57.76 56.27 56.15 56.47 55.63 54.50 53.71 53.29 53.74 54.45 54.14 54.37 53.90
45.53 47.24 47.22 46.64 46.44 47.94 45.90 49.48 47.99 47.08 46.19 45.05 45.06 43.05 46.85 49.97 48.75 50.77 53.16 55.11 56.80 58.29 58.86 58.51 59.10 60.02 58.98 58.16 57.79 57.39 56.01 54.98 55.44 55.30 55.58 54.51 53.18 53.16 53.41 53.07 52.09 52.64 53.01 53.03
48.09 50.08 49.41 48.24 48.69 48.56 49.45 48.29 47.60 47.35 46.23 40.01 43.76 43.12 44.11 47.32 49.58 51.47 53.15 53.69 54.88 55.66 55.67 55.84 56.59 55.81 55.15 56.10 55.84 55.62 54.54 53.63 53.85 53.61 53.45 52.80 51.67 50.15 48.69 47.61 47.01 46.77 46.73 47.29
47.05 46.97 48.87 50.16 47.71 49.24 48.89 46.61 40.16 38.05 38.72 37.66 43.26 41.97 44.60 49.39 51.39 53.44 52.83 52.91 54.13 54.22 53.56 53.34 53.25 53.42 53.86 54.39 54.44 53.90 53.13 51.69 52.73 52.41 51.06 49.48 47.77 46.81 45.68 45.03 44.45 44.47 44.52 45.20
42.41 40.43 46.31 48.65 47.86 46.31 47.32 46.52 40.68 31.92 34.70 38.30 42.63 39.24 45.41 49.00 52.23 55.01 54.66 53.98 53.85 53.43 53.74 53.89 54.09 54.44 54.08 53.30 53.07 52.86 52.31 51.15 50.20 48.52 46.78 46.91 46.59 46.24 45.81 45.65 45.33 44.91 44.69 45.54
42.49 41.25 47.42 47.67 48.71 48.27 44.84 43.12 46.77 40.66 39.16 38.90 41.79 44.78 48.39 48.69 49.36 52.62 52.90 52.86 52.62 53.44 53.69 54.33 54.34 53.80 53.23 52.53 52.39 52.54 50.50 47.97 46.85 46.96 46.19 46.62 46.52 45.95 45.62 45.91 46.04 45.08 45.45 45.63
46.50 40.68 45.53 46.43 48.62 48.22 46.88 47.65 41.46 43.15 33.59 32.01 39.51 40.72 42.94 45.77 47.26 50.39 51.29 51.71 52.35 53.57 53.85 54.06 53.14 52.10 52.42 52.44 51.62 50.09 48.79 47.40 45.48 45.15 46.53 46.19 45.97 46.02 46.20 45.78 44.61 44.55 45.13 45.64
48.02 45.79 43.40 46.00 45.30 44.93 44.21 43.67 42.48 43.70 40.92 35.43 33.59 39.16 47.82 47.59 49.36 49.56 51.33 52.32 52.90 53.38 53.51 53.17 52.32 52.27 52.00 51.19 49.17 48.10 47.28 45.66 44.31 46.26 45.81 45.97 46.39 45.51 45.52 44.58 44.32 44.10 44.57 44.53
47.67 46.85 42.15 43.41 46.42 47.55 46.88 44.67 43.91 38.96 35.99 38.91 38.31 39.01 46.58 48.21 49.44 51.55 51.83 52.57 53.93 53.92 53.74 52.69 51.66 51.61 50.61 48.59 47.43 46.71 46.53 45.95 45.86 45.05 45.17 45.29 45.79 44.90 44.20 43.98 43.60 44.07 43.60 44.06
48.18 45.16 39.45 40.48 43.95 46.06 44.57 45.12 43.68 42.69 42.01 37.12 37.66 39.25 46.42 47.77 47.78 49.63 51.15 52.68 52.43 52.56 51.97 50.77 50.16 49.34 48.07 46.83 46.17 46.04 46.55 45.30 44.49 44.17 44.52 45.31 44.99 44.38 43.47 43.41 43.23 43.45 43.30 43.36
47.62 45.51 43.33 39.75 41.12 44.54 42.07 43.63 44.08 43.47 38.92 38.71 39.69 41.09 44.27 46.60 47.69 48.98 49.64 51.70 51.06 50.71 49.62 49.37 48.12 47.30 46.83 46.24 45.89 46.76 45.13 45.30 44.29 43.54 43.88 43.72 43.70 43.51 43.47 43.31 42.88 42.71 42.99 42.69
48.54 43.26 42.68 41.83 41.86 41.76 42.17 43.00 43.01 41.73 43.00 39.19 41.15 41.47 44.02 46.42 48.13 49.95 50.06 49.98 49.40 48.37 47.78 47.51 46.95 47.01 46.37 46.08 46.78 46.18 45.51 44.64 44.28 42.95 43.01 42.91 43.52 43.76 43.30 42.65 42.36 42.40 42.70 42.66
45.65 42.92 41.08 39.29 40.89 40.86 40.04 42.72 43.82 43.78 43.81 42.74 43.17 42.64 48.27 49.07 48.95 48.87 48.09 47.95 47.32 47.11 47.41 47.62 47.30 47.16 46.19 45.56 45.77 45.34 44.34 43.83 43.79 42.99 42.67 42.97 42.81 42.72 42.53 42.07 41.78 41.86 41.78 42.16
44.65 41.35 39.01 36.93 37.87 38.37 36.41 40.79 42.87 43.47 45.03 44.31 41.11 45.63 48.00 46.84 47.19 48.37 48.49 47.57 47.31 47.73 47.76 47.73 48.07 47.29 45.93 44.99 45.61 44.40 43.94 43.64 42.59 42.08 41.91 41.41 41.69 41.52 41.67 41.47 41.44 40.82 41.00 41.63
40.18 40.09 38.71 37.88 34.09 32.42 41.42 43.79 43.40 43.70 44.68 45.88 45.57 46.20 47.05 47.41 48.84 49.06 50.39 49.44 48.27 48.59 48.57 49.18 48.91 47.62 44.56 45.66 45.51 44.97 43.23 42.06 41.53 40.87 40.81 41.31 41.19 40.74 41.03 41.13 40.81 40.95 41.00 40.43
43.85 41.59 35.97 37.36 35.69 39.08 40.52 40.50 40.96 41.40 41.99 46.51 45.69 46.80 46.76 46.70 47.44 49.09 49.86 50.69 50.82 50.35 50.42 50.62 50.01 48.21 46.58 44.19 44.77 42.74 41.52 41.45 40.43 40.18 40.51 40.17 40.28 40.36 40.36 40.08 40.73 41.17 40.46 39.69
41.30 41.37 41.86 35.54 36.29 34.09 40.34 42.21 46.49 45.92 39.04 46.36 46.74 46.81 46.51 46.48 44.42 46.86 51.31 50.80 50.31 51.01 50.96 50.06 49.01 46.71 45.07 44.01 42.37 40.84 40.54 40.84 40.12 39.93 39.51 40.24 40.55 39.97 39.69 40.29 40.61 41.11 40.38 38.93
39.29 39.13 37.70 36.36 37.22 39.23 42.85 44.32 46.36 36.38 39.69 47.30 47.91 48.21 47.58 46.64 49.34 50.14 49.81 50.81 51.03 50.92 50.07 49.11 45.53 44.11 43.27 42.52 41.37 39.87 40.51 39.79 39.43 39.71 40.09 39.92 40.11 39.85 40.29 40.61 41.03 40.51 39.65 38.11
39.42 38.53 37.29 34.77 35.34 33.58 43.68 44.66 41.20 46.60 49.02 48.48 48.67 49.61 49.18 50.30 49.77 48.14 47.50 47.44 48.68 49.00 46.76 44.80 42.70 41.09 39.71 41.42 41.19 40.39 39.02 39.62 39.69 39.85 39.32 39.48 39.65 39.37 39.29 39.48 39.84 39.47 38.21 36.43
39.01 43.01 42.53 40.96 42.40 45.30 46.83 48.69 49.91 48.66 48.50 49.28 49.25 50.05 49.78 49.41 49.40 48.46 46.53 45.52 45.82 45.33 42.92 40.52 38.60 38.73 39.78 40.10 39.47 38.07 38.68 39.22 39.08 38.85 38.55 38.57 38.78 38.54 38.76 38.38 38.52 37.66 37.18 35.57
43.31 43.34 42.56 40.83 44.59 45.56 46.69 48.48 49.07 49.38 48.96 50.35 50.68 50.23 50.17 49.23 49.78 48.54 46.31 43.35 42.61 41.90 39.89 39.16 36.86 36.19 35.38 37.24 37.14 38.09 38.63 38.76 38.02 37.09 37.24 37.67 36.59 35.53 37.61 38.29 37.96 37.18 36.32 35.39
45.29 43.76 42.95 42.73 45.58 46.81 47.62 48.49 49.18 49.59 50.90 50.54 51.25 50.81 50.24 49.70 49.30 47.96 43.62 41.62 40.45 37.13 37.49 37.36 36.38 36.38 37.15 37.28 36.90 37.93 37.40 37.24 35.93 36.25 35.99 36.12 36.21 34.71 34.02 35.20 37.46 36.26 37.21 35.80
44.93 44.91 42.90 42.56 47.07 47.12 47.63 49.14 49.88 49.41 50.09 50.54 49.92 49.85 48.14 47.39 46.48 44.42 40.81 39.04 41.03 39.12 34.90 34.49 35.92 34.90 35.07 35.89 36.19 36.86 37.01 35.96 35.59 34.66 35.69 36.47 36.32 35.64 33.93 33.89 34.33 32.55 31.21 30.41

GFSCGP_sfc_wetblb_012.txt.gz
Wetbulb
51.24 46.76 44.24 46.63 48.20 47.71 46.52 44.72 43.72 46.03 47.42 45.76 47.06 47.26 49.54 52.38 55.56 55.75 56.34 57.27 58.07 58.82 60.73 61.30 61.14 62.42 64.05 63.94 63.52 63.74 63.32 63.11 63.37 62.12 58.96 58.32 57.22 57.21 56.31 55.74 56.46 55.42 55.48 55.19
47.61 44.25 48.56 49.61 48.69 47.51 46.50 44.72 43.60 46.02 47.52 46.58 46.25 46.48 49.18 51.72 52.58 54.63 55.78 56.85 57.63 58.75 59.91 61.23 61.79 61.71 63.20 63.53 63.47 63.59 63.19 63.43 63.45 61.55 60.51 60.30 57.82 56.40 55.77 55.90 55.29 55.33 54.93 54.20
45.43 46.88 49.86 48.52 47.36 45.82 45.65 44.68 44.78 44.27 45.87 47.14 47.56 45.49 47.42 50.87 53.04 54.04 55.24 56.79 58.09 58.49 59.27 60.49 60.82 62.17 63.94 62.65 62.80 63.58 62.09 63.33 61.37 60.09 59.11 57.58 56.73 55.92 55.24 54.75 54.19 54.54 54.47 53.07
46.10 50.45 48.48 47.06 45.71 46.37 43.36 48.91 47.28 46.34 44.70 39.85 47.55 38.34 43.91 49.23 49.93 52.77 54.69 55.87 56.66 58.05 59.91 60.48 61.36 61.79 62.77 61.77 63.23 62.92 62.87 59.72 59.90 59.43 57.25 56.17 54.13 52.05 53.00 52.74 51.57 50.46 50.15 48.43
46.11 47.63 46.99 45.82 46.97 49.38 45.68 49.29 47.90 47.00 45.04 45.12 44.34 41.13 44.21 47.31 48.18 50.80 53.90 55.98 57.54 58.92 59.72 60.46 61.24 61.65 62.52 61.73 62.87 62.12 59.41 57.83 57.77 57.61 56.97 54.95 53.10 52.74 51.02 48.67 47.61 47.40 46.94 47.41
47.72 51.75 50.26 49.03 50.11 50.27 50.92 47.52 48.07 46.63 45.11 38.78 42.26 41.10 40.88 44.35 47.12 51.02 53.22 55.52 57.22 58.40 60.03 61.01 61.55 61.81 61.29 62.18 61.19 58.83 56.61 55.85 56.67 55.75 54.60 52.25 49.69 47.85 46.58 45.57 44.99 44.89 45.30 45.26
45.83 46.98 50.42 51.06 46.83 49.59 48.35 45.53 38.59 36.53 37.41 36.70 44.80 42.06 43.94 47.75 50.77 50.38 50.81 54.90 57.15 59.08 59.64 60.25 60.18 60.66 60.37 59.12 57.70 56.55 55.24 54.30 54.92 53.56 50.85 49.65 48.15 47.18 46.07 45.30 44.64 43.74 43.31 43.46
41.83 40.33 47.17 49.79 47.44 45.36 46.52 44.16 39.68 29.58 30.36 36.43 44.56 38.90 43.75 51.80 53.25 52.69 55.31 56.71 58.33 58.91 59.76 59.63 59.55 58.61 57.76 56.68 56.10 55.24 54.27 53.55 53.27 50.46 48.91 48.99 48.38 46.85 46.41 45.83 45.07 44.10 42.93 43.05
41.35 41.26 49.62 49.91 50.02 48.87 44.60 42.96 47.59 41.54 41.73 39.12 41.06 43.35 46.63 50.70 50.45 52.09 55.10 56.04 56.59 57.54 57.63 57.49 57.89 56.34 55.70 55.44 55.29 54.74 53.89 53.43 50.51 49.10 48.88 48.25 47.54 47.05 46.16 46.24 45.50 43.89 43.40 43.49
45.05 38.06 47.48 49.07 50.24 49.87 47.60 48.61 42.46 43.41 33.73 31.64 37.92 40.37 42.22 47.07 48.61 50.40 53.54 54.50 55.65 56.61 56.18 55.89 55.72 55.26 55.32 55.74 55.44 55.16 54.49 51.86 49.26 49.26 48.68 47.69 47.35 47.45 47.08 45.40 43.72 42.79 42.93 43.23
48.86 45.52 45.18 47.85 45.67 43.79 45.71 43.62 44.76 44.01 43.37 36.98 34.88 38.79 47.31 47.10 49.41 50.84 52.53 55.38 55.42 55.71 55.28 54.61 54.60 55.21 55.54 55.63 54.97 54.38 53.75 50.05 48.71 48.71 47.74 47.36 46.61 46.93 46.62 44.83 43.46 42.71 42.77 42.88
49.18 46.89 43.68 44.38 48.94 49.73 48.31 46.76 45.16 41.15 38.32 42.86 40.31 39.16 49.33 49.68 50.04 52.17 52.52 54.97 55.94 55.97 55.48 54.84 55.06 55.37 55.45 54.79 54.27 53.46 52.12 49.56 49.09 48.42 47.48 46.93 47.39 47.04 45.46 44.53 43.47 42.94 42.11 42.57
49.58 45.41 40.33 42.04 46.44 48.75 45.45 45.78 46.94 46.76 45.54 39.96 37.41 39.59 49.38 49.13 49.07 50.64 51.86 53.26 55.42 55.69 55.50 55.27 55.25 54.94 54.56 54.02 53.46 52.81 51.25 49.53 48.83 48.25 46.75 46.50 46.52 46.87 44.89 43.61 43.40 43.02 42.06 41.51
51.75 46.62 43.16 39.27 42.44 46.25 44.18 44.71 45.27 44.91 40.45 39.93 39.61 41.55 45.61 47.63 48.18 49.70 51.06 52.21 53.72 54.97 55.27 55.09 54.98 55.00 54.15 53.74 53.22 52.07 50.47 49.81 48.81 47.42 46.00 45.47 45.57 45.91 44.47 43.67 43.14 42.83 42.02 40.79
50.10 43.39 44.98 45.21 46.30 46.39 45.59 44.71 44.94 42.97 44.09 39.52 42.88 42.44 45.41 46.96 48.42 50.03 51.44 51.97 51.71 51.96 54.25 54.83 54.91 54.91 53.93 53.14 52.89 51.64 49.95 49.54 48.36 46.27 45.13 45.41 45.60 45.19 44.62 43.61 43.59 42.83 41.97 41.19
50.73 45.01 46.28 44.25 46.19 46.00 43.55 45.45 45.28 44.58 44.55 44.23 44.13 43.61 48.16 50.08 50.03 49.23 49.54 50.24 50.95 50.84 51.64 54.36 55.12 54.68 53.72 53.50 52.54 50.92 49.33 48.49 47.31 45.64 45.29 46.01 45.00 44.61 43.10 42.86 42.77 42.50 41.54 40.90
49.29 47.15 43.17 39.34 42.40 41.87 36.44 43.01 44.31 45.47 46.00 45.21 41.38 46.20 48.87 48.21 48.56 49.48 50.08 50.41 50.69 51.12 51.84 53.04 54.06 54.48 53.97 53.22 52.42 50.04 48.85 48.08 46.01 44.80 44.83 44.90 44.15 42.18 42.05 42.24 41.98 40.82 40.07 40.50
47.20 45.92 43.74 39.96 36.39 31.51 42.64 47.55 46.67 45.01 46.16 47.09 46.65 47.61 48.01 48.60 49.41 49.59 50.52 50.51 50.87 52.41 52.30 52.99 53.22 53.57 53.50 52.96 51.79 50.10 49.41 46.85 45.14 44.06 43.72 42.73 42.65 42.09 42.09 41.45 40.63 40.47 40.37 39.75
50.41 46.69 41.66 37.28 36.82 40.25 42.49 44.45 43.63 42.84 42.95 47.21 46.26 47.07 48.08 48.68 49.27 49.03 52.26 52.71 52.24 52.32 52.12 52.59 53.29 53.42 53.13 52.16 51.62 49.36 47.80 45.50 44.04 42.73 41.61 41.81 42.03 40.61 40.50 39.74 39.47 39.38 39.25 38.60
46.33 48.00 44.88 39.06 36.34 32.84 43.40 46.13 48.48 47.53 39.19 47.04 47.41 47.10 47.09 47.99 43.79 46.72 51.79 52.38 52.14 52.30 52.45 52.43 53.18 53.29 52.60 52.20 50.46 47.21 45.19 43.27 42.16 43.04 42.65 41.18 40.79 40.10 39.13 38.79 38.78 39.00 38.81 38.45
41.19 42.78 37.88 38.88 37.88 40.91 46.68 47.34 48.03 38.36 41.17 48.62 48.93 48.80 48.72 46.96 48.82 50.95 52.49 52.61 52.64 52.24 52.30 53.40 53.28 51.23 50.24 50.48 47.91 44.62 42.86 41.79 41.71 41.34 41.05 40.50 40.51 39.16 39.37 38.78 38.86 37.99 37.33 37.09
40.76 40.55 38.60 41.82 35.27 32.71 47.60 46.45 42.28 48.82 51.74 50.02 49.92 50.40 49.93 50.48 50.89 51.06 51.45 51.30 51.91 50.59 51.06 51.78 44.99 42.38 42.63 44.22 44.21 42.23 40.58 40.79 39.98 40.14 39.92 39.75 39.25 39.29 38.83 37.42 36.77 37.02 36.26 34.96
42.27 46.24 45.23 43.06 42.62 49.85 49.51 49.01 51.09 51.93 50.72 50.11 50.26 50.51 51.12 50.46 50.55 51.18 50.93 51.35 50.11 49.09 46.68 43.03 41.36 39.66 40.43 40.11 41.23 37.50 38.73 40.25 40.48 39.65 38.68 38.03 38.50 37.91 37.28 34.99 34.42 34.72 35.34 33.70
47.91 49.07 46.20 45.68 46.22 47.33 49.03 50.04 51.03 50.48 50.90 51.15 51.67 51.86 51.83 50.59 50.93 50.30 50.91 48.12 42.08 42.26 42.02 41.24 39.98 39.14 39.00 39.95 39.56 38.74 40.02 39.00 37.78 36.48 36.37 36.81 36.10 35.83 35.75 36.15 35.56 33.96 33.27 33.07
48.65 47.74 45.09 45.12 47.49 48.50 48.66 50.48 50.88 51.14 51.86 52.08 52.26 51.33 48.60 48.82 48.93 49.46 44.67 42.10 40.29 39.96 40.16 39.97 38.06 37.30 36.90 37.68 37.47 38.24 38.21 37.53 36.11 35.96 35.65 35.55 34.37 35.14 35.40 36.10 34.78 32.71 33.42 31.95
48.83 46.70 45.85 44.25 48.52 48.44 48.79 50.72 51.23 49.81 48.45 48.20 47.93 45.96 45.25 45.57 44.14 41.99 40.84 40.46 38.89 37.92 38.05 37.38 37.40 37.12 37.17 37.52 37.42 37.83 38.25 37.43 35.75 34.41 34.14 34.45 34.54 34.45 34.58 34.38 34.11 34.45 33.77 33.89

GFSCGP_sfc_wetblb_018.txt.gz
Wetbulb
45.13 39.74 37.18 40.34 41.93 43.52 43.27 41.41 40.62 40.67 44.37 42.19 41.24 44.04 47.12 48.73 50.15 49.35 51.24 52.12 52.47 54.90 56.55 58.90 59.03 58.84 57.90 57.14 60.19 59.58 57.00 57.49 58.03 55.79 53.31 50.82 49.94 49.22 49.24 49.40 50.54 50.49 50.20 49.55
41.63 37.84 43.46 45.26 46.62 44.99 42.63 40.53 39.62 42.21 44.18 41.69 39.42 43.89 45.96 47.57 50.41 50.88 51.66 52.39 53.29 52.45 53.62 57.42 57.73 57.60 57.47 58.90 60.33 58.96 57.46 57.99 57.86 56.03 53.51 51.79 50.56 48.55 48.76 49.30 49.19 49.34 48.85 48.41
39.83 42.96 47.38 47.20 44.79 42.76 41.39 41.03 40.25 39.95 40.44 42.10 41.55 38.67 42.72 47.81 49.69 50.43 51.68 53.89 54.33 53.42 52.79 55.45 56.61 56.81 57.70 59.01 59.78 59.34 58.18 57.83 58.87 55.61 52.78 50.12 49.20 48.71 47.98 47.36 47.56 44.72 43.83 43.37
42.33 46.03 45.46 44.72 43.49 43.34 38.05 44.83 44.33 43.09 39.05 34.31 38.71 31.18 39.79 43.96 45.22 49.62 50.41 50.58 49.91 52.55 53.86 54.59 56.28 56.37 57.51 59.26 60.34 60.00 59.71 58.43 58.81 55.59 52.96 51.04 49.85 48.23 47.27 45.77 42.46 41.30 42.72 42.72
41.80 43.98 43.23 43.73 43.61 45.49 41.85 44.47 43.38 43.55 38.83 36.54 37.57 35.06 39.19 42.17 42.24 46.37 48.76 50.94 50.75 53.03 53.57 53.53 56.54 56.92 58.06 59.20 58.95 59.24 58.62 57.04 56.23 53.89 53.98 50.75 47.09 46.16 43.50 41.22 40.11 40.43 40.89 42.21
42.65 47.08 46.38 45.75 47.65 46.68 46.51 43.54 42.87 40.45 37.93 30.01 37.78 35.30 34.16 39.31 44.45 45.33 46.66 51.55 52.07 53.25 53.71 54.23 56.92 58.10 57.91 58.81 59.19 58.57 55.78 54.67 54.29 51.48 49.52 49.50 44.93 42.50 40.24 38.95 38.64 39.15 39.77 40.73
41.97 42.76 46.32 48.27 42.91 45.87 44.15 39.25 31.79 29.74 27.85 27.29 40.28 36.61 37.78 43.39 45.82 46.80 46.86 47.77 51.84 52.72 53.20 54.88 56.50 57.41 58.18 57.81 54.44 53.84 53.25 51.82 51.71 49.50 46.20 44.46 42.51 41.05 40.24 39.00 38.79 39.18 38.87 38.52
36.49 34.44 43.29 47.40 43.32 40.17 41.83 39.08 30.80 26.08 25.57 31.13 39.24 33.91 39.54 46.78 47.93 48.84 48.02 48.82 50.19 52.19 54.79 55.96 56.85 57.44 57.55 55.47 52.71 52.47 52.23 49.28 48.00 46.30 44.54 43.23 41.73 41.10 40.55 40.49 39.56 39.34 38.89 38.77
35.93 37.47 45.61 46.87 47.03 45.18 40.97 36.77 41.03 34.40 34.46 31.31 34.54 40.40 41.34 46.50 45.99 46.15 47.02 47.72 49.14 51.21 53.79 55.26 55.82 56.41 55.25 52.14 49.74 50.85 49.86 47.39 46.81 45.47 44.36 43.35 41.75 42.25 41.51 40.55 40.03 39.23 39.12 40.44
42.09 36.39 44.96 46.35 47.13 46.04 42.57 43.03 35.31 34.40 28.18 26.91 31.60 33.22 35.24 41.53 44.11 46.09 46.10 46.24 47.63 51.51 53.44 54.69 55.14 53.48 53.08 50.95 49.45 49.23 49.51 46.83 46.82 45.86 44.38 44.10 42.68 42.63 41.54 40.36 39.32 40.74 41.00 40.57
43.76 39.33 39.39 44.62 42.70 41.87 40.33 37.97 38.05 37.92 32.32 27.53 25.53 31.16 39.33 42.11 44.67 45.06 46.54 47.65 47.82 51.76 53.41 54.43 53.33 52.79 51.82 50.35 49.65 49.47 48.72 46.35 45.51 46.17 44.52 42.24 41.25 41.37 40.68 40.56 41.11 40.47 39.43 40.57
44.49 40.28 32.03 40.00 45.78 46.67 43.17 40.51 38.81 29.14 30.68 29.55 27.69 31.88 42.93 42.47 43.46 45.90 46.76 48.54 49.97 52.78 53.35 53.66 53.00 52.12 51.05 50.55 49.45 48.64 47.83 46.59 45.53 43.87 42.90 42.55 43.47 43.18 41.41 40.35 39.90 40.62 40.16 39.92
43.99 37.65 29.41 35.01 40.11 43.05 40.25 41.30 41.52 39.06 32.64 30.17 25.27 30.75 42.92 41.99 42.46 44.09 44.57 48.00 50.57 51.32 50.40 50.52 51.34 51.18 51.23 51.27 50.55 48.63 47.76 45.93 44.38 43.78 43.93 42.91 43.16 42.29 42.24 41.40 41.03 39.57 40.13 39.30
45.89 39.36 34.87 30.10 35.54 39.85 37.19 40.63 40.59 38.87 29.06 30.18 30.22 35.51 40.66 40.85 41.60 42.60 43.48 44.03 47.88 49.65 50.15 48.37 49.43 50.91 51.49 51.51 50.83 49.95 47.41 45.22 45.07 44.08 43.15 42.57 43.21 43.58 43.00 40.66 38.90 38.52 38.38 37.31
43.50 37.09 38.30 39.26 41.44 41.57 40.20 40.00 39.95 37.86 37.02 32.24 35.88 36.34 40.27 41.56 40.78 42.30 43.50 44.33 46.03 48.00 48.66 48.58 47.55 46.60 48.56 48.89 49.55 49.56 45.38 45.28 44.90 43.92 43.19 43.43 44.56 44.46 42.30 39.09 38.37 38.30 38.01 38.19
43.57 36.12 36.62 35.56 39.72 39.82 37.35 39.60 39.35 39.77 39.50 38.36 37.90 37.38 40.27 41.82 42.02 42.56 43.23 44.62 44.09 44.02 45.57 46.57 48.19 47.44 48.65 48.73 48.22 48.24 46.09 45.74 44.55 43.40 42.83 44.47 44.05 41.71 40.30 38.37 38.03 38.41 39.08 39.84
40.12 35.46 31.84 30.79 34.46 34.56 29.26 35.65 38.67 39.80 40.42 40.21 33.97 38.10 40.85 40.97 42.51 41.60 41.75 43.90 43.82 44.79 45.13 46.39 47.96 47.91 47.60 47.74 48.28 47.82 46.45 45.28 43.31 41.90 43.89 43.51 41.42 39.87 39.76 39.42 38.10 38.80 39.15 39.33
37.45 34.75 30.53 27.76 28.44 22.00 37.72 41.87 41.80 39.35 39.19 40.03 39.90 39.93 42.07 42.57 42.72 43.69 43.28 42.95 43.37 44.11 44.60 44.48 44.90 47.77 47.60 47.84 48.41 47.44 45.29 42.27 40.47 40.52 41.10 40.63 40.35 39.37 39.63 38.80 38.58 38.60 38.55 36.76
46.24 35.25 30.80 26.36 26.55 32.68 37.55 39.60 38.39 37.02 36.03 40.68 39.55 40.85 42.11 43.47 43.03 42.86 45.35 45.27 44.19 43.94 43.15 41.15 40.39 40.84 44.69 46.63 45.43 42.45 40.68 39.40 38.96 39.29 39.66 40.18 39.77 38.61 38.40 37.76 37.93 37.59 37.09 36.06
40.82 37.75 32.89 28.27 24.64 21.62 34.13 40.81 43.35 41.57 31.23 42.01 41.93 41.23 41.68 40.57 31.99 38.90 44.75 45.04 41.65 39.30 39.06 38.74 39.38 39.81 39.91 40.23 41.61 39.48 38.83 38.21 37.72 38.31 38.37 38.81 38.42 38.58 38.13 37.84 37.63 37.22 35.17 35.17
29.80 29.61 26.62 22.26 22.13 28.64 38.89 42.94 42.10 29.63 31.43 42.71 42.62 41.95 41.37 39.57 40.09 43.11 41.94 38.86 38.57 38.54 38.26 38.49 37.73 37.25 37.42 38.84 39.39 38.16 38.20 37.79 38.97 39.27 39.72 39.85 40.09 39.52 38.85 38.27 37.14 35.59 33.99 33.00
32.02 28.94 25.75 30.35 24.28 25.32 43.36 41.14 35.21 37.57 41.55 42.72 42.26 42.44 42.43 43.30 41.71 39.28 38.57 37.37 36.83 36.77 37.40 37.70 36.64 36.26 37.31 38.04 37.72 37.06 36.84 38.66 39.33 39.52 39.86 39.86 39.84 39.12 37.89 35.20 34.44 33.42 32.33 30.33
32.22 35.37 31.59 33.41 32.31 41.08 42.09 42.55 44.52 43.91 42.52 42.10 43.97 44.31 45.42 42.55 37.89 37.37 35.92 36.19 37.03 36.71 36.46 37.59 37.43 37.21 36.88 37.59 38.63 36.85 36.84 38.37 39.56 39.27 38.69 38.70 37.01 36.02 35.42 33.00 32.14 30.88 31.07 27.54
39.72 43.48 36.12 36.60 40.30 41.24 42.00 44.58 44.97 45.70 44.75 43.76 44.14 44.80 43.58 38.07 37.13 36.29 36.80 36.40 36.30 36.09 35.78 35.66 35.27 34.68 35.27 37.22 37.37 36.54 36.96 36.98 35.89 34.52 34.11 33.81 32.98 33.00 33.14 33.15 32.51 30.19 27.15 26.16
39.68 41.55 39.23 37.05 41.17 44.10 44.43 44.42 44.08 41.99 41.48 40.27 40.47 39.89 38.36 37.76 36.57 36.30 35.49 34.97 34.91 34.74 35.04 35.05 34.12 33.78 33.95 35.29 34.88 35.15 34.68 34.41 32.78 32.40 32.42 32.34 29.78 30.67 30.82 31.05 30.75 30.02 29.88 29.15
41.27 39.47 34.30 32.89 42.04 41.07 41.26 42.11 42.80 41.16 40.07 39.79 38.47 37.39 37.99 37.37 36.13 36.16 35.47 35.86 35.37 34.64 34.70 34.17 33.97 33.75 33.95 33.85 33.14 33.63 34.22 33.50 32.28 31.46 30.65 28.71 27.84 27.76 29.29 29.83 30.31 32.67 32.87 32.72

GFSCGP_sfc_wetblb_021.txt.gz
Wetbulb
43.40 38.78 36.04 39.20 40.93 41.63 41.14 38.19 37.73 39.86 43.61 42.40 42.90 44.41 47.86 48.79 49.06 48.42 49.24 50.94 54.23 56.09 58.04 59.62 60.25 58.77 59.07 56.00 58.85 58.15 56.23 55.70 57.06 53.49 50.63 49.65 49.30 48.73 48.93 48.81 49.03 49.52 49.24 48.57
40.38 36.72 42.12 43.75 42.96 42.14 42.25 39.07 38.23 41.15 42.35 41.57 39.20 41.59 43.99 47.70 48.83 49.63 50.40 50.92 52.79 55.23 55.42 58.25 57.70 57.47 56.93 56.54 58.94 57.24 56.86 56.78 56.44 54.25 51.13 50.50 48.89 47.64 47.47 48.10 47.91 48.09 47.87 47.21
38.38 41.29 45.04 44.94 42.75 41.78 40.83 38.70 38.18 39.19 39.20 40.19 40.45 38.75 43.13 47.38 48.15 49.11 51.01 52.65 52.93 53.88 53.41 56.38 56.61 56.46 56.13 56.52 58.65 57.76 56.91 57.40 56.41 53.81 50.84 48.40 48.14 47.49 46.73 46.04 45.85 43.74 44.10 42.74
40.44 44.41 44.03 42.34 42.38 43.11 37.98 42.80 41.75 40.60 36.36 33.16 38.11 31.21 38.00 43.60 46.11 47.08 50.07 49.71 51.18 52.35 53.54 56.27 56.46 55.66 55.78 56.66 59.11 59.41 57.66 57.71 56.61 53.51 50.98 50.10 49.09 46.84 46.08 45.71 41.29 40.00 41.99 42.15
40.96 42.65 41.90 41.71 42.77 43.76 40.81 43.81 41.82 40.82 37.14 36.13 36.09 33.03 35.39 41.57 44.20 46.44 48.08 49.88 50.96 50.99 51.77 54.49 55.94 56.61 56.65 57.41 58.51 59.40 57.77 57.34 57.75 54.11 52.67 50.08 48.83 47.78 44.03 40.67 39.55 39.25 40.41 41.12
41.74 45.34 44.23 43.81 46.22 44.92 44.75 41.79 40.64 38.50 36.34 29.38 35.29 34.00 32.63 37.45 43.96 47.47 48.60 49.72 50.99 49.36 51.49 52.44 56.24 56.72 56.65 57.58 58.28 58.49 57.31 57.09 56.60 54.71 53.41 51.01 49.10 45.60 40.99 38.37 38.06 38.44 39.09 39.20
40.14 41.06 44.28 46.44 42.38 44.13 42.33 37.62 30.41 29.00 27.37 27.14 37.91 34.70 36.45 42.00 43.85 45.40 44.99 47.46 49.39 50.33 51.78 50.98 54.32 55.06 55.96 56.54 57.26 57.67 56.55 56.93 56.41 53.56 52.51 50.71 48.96 46.12 42.98 39.36 38.48 38.20 38.44 37.58
34.93 33.26 41.53 45.85 42.18 39.89 39.45 38.05 30.06 26.08 24.90 29.61 37.54 32.31 37.70 44.31 45.73 46.40 46.69 46.40 47.77 49.09 51.75 52.46 54.54 55.45 55.89 56.77 57.37 57.50 53.73 52.37 50.29 51.30 49.62 47.34 45.60 44.28 43.26 41.28 40.64 38.54 38.36 37.76
33.96 35.82 43.20 45.22 46.27 44.41 39.09 35.10 38.67 32.85 31.94 29.28 31.80 37.66 40.80 43.03 43.72 43.19 44.40 46.95 47.89 47.87 51.12 52.96 54.61 56.15 56.44 56.77 55.69 55.51 52.38 50.63 48.02 48.15 46.64 45.03 44.36 43.96 42.11 41.07 40.84 38.13 38.04 39.48
40.25 34.74 42.28 44.43 45.31 45.34 41.04 42.41 33.23 32.66 27.30 26.14 29.94 30.92 33.53 40.87 43.65 44.50 43.54 45.04 47.53 49.52 51.74 53.67 55.41 56.23 57.06 57.08 54.33 51.39 50.69 49.26 47.57 45.78 45.32 45.33 45.46 43.40 42.12 41.00 39.85 39.75 39.79 41.36
41.95 38.04 37.23 43.38 40.34 39.84 38.93 36.66 36.09 36.09 31.39 26.45 23.88 29.64 38.32 40.94 43.12 44.27 43.85 45.68 46.02 49.36 52.02 53.94 55.13 55.71 56.02 53.58 50.65 49.97 47.19 45.99 44.92 45.78 45.27 45.61 42.86 41.75 41.31 40.11 40.60 40.97 41.02 40.67
42.66 37.73 30.44 38.02 42.93 43.75 41.45 39.30 37.18 28.74 29.52 28.10 26.60 30.06 41.23 41.02 41.51 42.62 44.60 46.13 46.17 48.61 51.76 54.01 54.61 52.70 50.54 49.45 48.98 49.35 48.07 46.59 46.13 45.74 44.42 42.85 43.55 41.78 40.16 40.98 42.20 41.80 40.16 40.56
42.93 35.84 28.81 33.97 38.67 40.89 38.81 39.86 39.53 36.68 31.03 29.64 24.98 29.92 40.89 40.51 40.69 41.89 44.13 45.86 46.50 48.62 50.49 51.78 51.28 50.70 50.88 49.84 49.01 49.04 48.26 47.16 45.89 46.18 45.07 42.88 41.18 40.89 41.10 42.84 41.53 40.42 40.32 38.82
44.23 37.48 34.75 31.33 34.92 38.13 35.15 38.96 39.01 37.06 28.52 29.02 29.04 33.96 39.09 40.93 41.14 41.15 41.96 43.07 44.84 48.24 49.71 48.88 49.50 49.98 50.20 50.25 48.83 48.70 47.71 46.91 45.82 44.82 44.07 43.28 41.94 41.85 42.11 41.20 40.64 40.18 39.75 38.73
42.84 36.82 36.15 36.77 38.43 40.26 38.94 38.57 37.59 36.57 35.64 31.48 34.96 34.81 39.34 39.09 40.11 40.02 41.59 42.16 46.31 46.74 47.62 47.18 47.45 47.43 48.54 48.92 49.28 48.58 46.49 44.57 45.27 43.99 43.57 42.42 43.58 42.50 42.52 41.35 40.27 39.44 39.02 38.75
41.71 34.13 35.71 33.67 37.85 37.80 36.30 38.93 38.51 38.12 37.47 36.73 35.74 35.56 38.59 39.74 39.42 40.42 41.26 42.04 41.97 43.21 45.05 45.83 46.73 47.40 47.40 47.69 47.60 47.14 45.41 45.05 45.21 43.33 42.92 43.28 42.88 43.50 41.31 39.83 39.26 39.11 38.97 38.76
38.36 34.08 31.59 29.92 32.89 33.21 28.99 34.45 37.55 38.02 39.12 38.74 33.57 38.21 40.01 39.52 40.43 39.78 40.65 42.11 42.14 42.69 43.43 43.82 44.95 47.05 46.44 46.38 46.87 46.22 44.66 45.05 43.47 42.52 42.52 43.53 42.98 40.49 39.33 39.31 38.94 39.02 38.96 39.61
35.13 33.06 29.81 26.85 28.22 21.39 36.24 39.95 39.73 37.61 37.19 37.98 37.77 39.07 40.38 40.18 40.40 41.36 41.03 41.97 42.10 42.63 42.14 41.04 40.43 41.51 44.47 46.22 45.95 45.82 43.46 41.98 40.27 40.41 40.09 40.63 40.06 38.53 38.65 38.76 38.56 38.44 38.62 37.76
41.75 33.10 29.31 28.09 26.95 31.74 36.47 37.77 37.41 36.16 34.89 38.58 38.55 39.88 41.10 41.80 41.23 41.24 43.96 42.80 40.84 39.12 38.45 37.96 37.96 37.96 39.43 42.75 41.95 39.68 38.35 38.46 38.56 38.28 38.61 39.34 39.40 38.55 38.71 38.12 38.43 38.71 38.09 37.56
38.27 35.60 33.17 26.54 26.48 23.42 34.44 38.95 41.32 40.43 30.26 39.89 39.75 40.05 40.38 38.68 30.81 37.44 41.30 38.95 37.31 37.26 36.99 36.60 36.96 37.28 37.20 37.35 38.34 37.54 37.17 36.90 36.30 37.39 37.69 39.23 39.50 39.57 39.26 38.91 38.49 38.44 37.22 35.33
30.10 28.74 28.57 23.56 23.32 28.95 37.03 40.95 40.77 30.34 32.07 40.92 41.12 40.62 39.41 37.96 38.34 38.38 37.40 36.45 36.71 36.75 36.58 37.21 36.81 36.13 36.55 37.93 38.15 36.64 36.85 36.38 38.42 39.75 39.66 40.29 40.65 40.16 39.56 38.96 38.46 37.18 34.76 32.85
32.89 29.34 25.92 25.18 22.05 25.92 40.58 39.84 34.31 36.88 39.53 41.66 40.93 41.07 40.83 39.52 37.99 36.60 36.03 36.20 36.51 35.71 36.13 36.57 35.64 35.27 36.14 37.01 37.20 36.09 36.13 38.14 39.89 40.36 40.51 40.64 40.57 40.03 39.15 37.29 35.25 33.75 31.49 29.56
31.64 34.74 31.87 33.13 31.88 39.24 40.73 39.30 41.19 41.91 41.53 40.77 41.67 42.76 41.98 37.39 35.83 35.70 35.75 35.69 35.58 35.35 35.12 35.83 35.33 35.42 35.96 36.62 36.81 35.56 36.32 38.00 38.78 38.51 39.05 38.69 37.99 36.50 35.13 32.57 31.68 30.69 30.32 27.62
37.77 40.76 35.33 34.96 38.48 39.79 40.25 42.53 43.17 42.43 42.41 43.50 43.70 43.70 39.50 35.52 35.61 35.12 35.54 35.20 34.35 33.66 33.21 33.96 34.24 33.85 33.61 34.93 35.34 35.26 35.41 35.98 35.01 33.37 32.64 32.52 31.85 32.20 31.93 32.02 31.69 30.39 27.66 26.56
38.33 40.59 37.20 35.81 39.73 41.52 41.93 41.52 40.28 39.85 39.72 38.84 38.47 37.58 36.79 36.41 35.43 35.02 34.08 33.77 33.78 33.32 33.75 33.92 33.27 32.59 32.43 33.28 32.98 33.02 32.73 32.66 31.32 31.28 31.11 30.71 28.93 30.15 30.22 30.11 30.18 30.08 29.98 30.01
39.88 38.22 34.25 32.87 41.74 40.02 40.87 40.53 40.85 39.17 37.85 37.97 37.08 36.13 36.65 36.25 34.81 34.98 34.22 34.61 34.12 33.25 33.03 32.56 32.24 31.96 31.38 31.29 31.17 31.92 32.46 31.63 30.43 30.43 29.68 28.46 28.07 28.14 28.91 29.02 29.68 32.31 32.60 32.62

GFSCGP_sfc_wetblb_024.txt.gz
Wetbulb
42.01 37.95 35.36 37.64 39.58 39.88 38.97 36.26 35.56 38.85 42.91 43.22 41.90 43.54 45.38 48.66 48.94 49.10 50.31 52.83 54.85 55.73 57.35 56.97 57.70 59.23 58.81 57.52 57.15 57.75 56.58 55.37 56.39 53.92 51.57 51.25 50.33 50.31 48.89 49.02 49.26 50.47 49.30 48.35
39.80 36.07 40.88 41.93 41.71 41.15 40.19 37.13 35.92 39.58 41.32 39.85 38.93 41.21 44.51 46.45 49.07 49.27 50.46 51.97 53.84 55.45 55.42 56.55 57.29 56.92 57.79 56.85 57.40 57.14 56.53 55.86 56.10 55.42 50.43 50.46 48.98 47.57 47.37 47.53 47.67 48.33 47.26 46.43
37.48 39.87 43.37 43.11 40.46 39.83 39.12 37.74 37.29 38.29 38.61 39.04 39.62 38.22 43.27 46.32 47.26 48.61 49.97 52.03 53.33 54.06 54.70 56.17 57.23 56.17 57.21 56.65 57.23 57.65 56.56 56.35 55.81 53.59 49.32 47.57 47.91 47.15 46.18 45.35 45.09 44.41 44.32 42.64
39.36 42.62 42.27 41.12 40.03 40.83 37.97 42.40 40.01 39.01 35.60 31.66 36.25 29.45 36.88 43.20 44.87 46.26 48.58 49.18 51.44 52.34 54.71 55.79 56.90 55.59 55.74 56.50 57.49 57.99 56.98 56.55 55.71 52.21 49.83 49.50 48.44 46.55 45.79 45.16 41.39 39.88 41.48 41.07
39.12 40.54 40.29 39.38 40.93 42.56 40.20 42.44 39.84 39.33 35.99 34.90 34.02 31.94 34.38 39.36 42.73 46.10 47.30 49.04 50.71 52.05 53.02 53.92 56.30 56.97 56.43 56.33 56.82 57.92 56.68 56.43 55.88 52.97 51.50 49.59 47.57 46.61 44.96 41.29 38.72 39.57 39.86 40.60
40.59 42.92 42.19 41.77 43.31 43.17 43.42 41.45 39.45 37.32 35.20 28.57 33.35 32.55 32.79 36.19 43.84 47.85 48.64 48.05 50.25 50.23 50.89 53.35 55.86 56.09 55.75 55.23 56.00 57.01 56.04 56.14 55.74 53.84 51.77 50.02 49.08 45.98 43.16 39.88 38.93 38.59 38.50 39.31
38.38 39.74 43.00 44.43 40.22 42.25 40.98 37.13 30.10 28.74 27.23 26.89 36.21 33.33 35.84 40.90 42.45 45.25 46.84 48.62 49.06 51.10 49.57 50.04 53.44 54.67 54.77 54.64 56.13 57.24 56.68 55.23 55.83 54.74 52.42 50.67 49.06 47.76 45.85 41.78 41.55 39.34 38.42 38.17
34.00 32.15 40.02 43.76 40.97 39.06 38.00 37.00 29.24 25.27 24.14 28.88 35.40 31.05 36.76 42.36 43.22 44.72 45.13 45.25 46.03 48.20 50.44 50.74 52.87 54.98 55.34 55.29 56.39 57.25 56.99 56.61 56.07 56.26 54.19 51.62 50.26 48.82 47.10 43.87 42.07 40.64 39.91 39.12
32.54 33.85 41.56 43.78 44.13 41.93 37.77 33.92 37.24 31.46 30.33 28.42 30.27 35.49 39.54 40.61 42.73 43.31 43.01 43.93 43.55 46.12 47.93 50.27 51.25 54.19 55.14 55.70 56.75 57.37 57.52 57.08 54.86 54.43 51.29 49.54 49.70 47.81 44.72 45.32 43.38 40.51 40.17 40.77
38.46 33.02 40.37 42.56 44.28 43.37 39.78 41.03 32.96 31.23 26.83 25.23 28.45 29.06 31.98 38.51 41.24 43.27 43.43 43.67 45.14 46.73 47.76 49.64 51.12 53.36 54.79 55.77 56.71 56.57 57.10 55.93 52.44 51.36 49.54 48.33 47.44 46.95 45.47 43.41 41.10 41.07 41.51 41.75
39.36 36.49 35.34 41.04 38.98 38.51 38.04 35.67 34.75 34.83 30.33 26.11 23.07 28.66 37.56 39.27 41.04 40.89 41.87 44.33 44.59 46.72 48.96 50.53 52.03 53.45 54.58 55.28 55.37 54.90 53.95 51.71 47.98 47.63 47.94 47.70 46.10 45.77 44.22 42.94 41.69 41.40 41.80 41.60
41.15 36.55 29.35 36.88 40.58 42.62 39.40 37.84 36.07 29.12 29.12 27.56 25.71 28.48 39.52 39.78 40.36 40.10 41.85 43.62 44.00 45.55 49.46 51.26 52.19 52.73 53.19 54.43 52.38 50.93 48.94 47.07 48.97 47.46 46.65 46.72 44.40 43.35 41.70 41.33 41.15 40.83 41.33 41.20
41.28 33.84 27.46 32.10 36.36 38.93 36.84 38.20 37.68 34.74 30.68 28.64 24.10 29.45 39.64 39.67 40.22 41.22 40.90 41.98 44.22 45.96 47.02 50.70 51.51 51.31 51.49 49.35 48.68 49.69 48.67 46.76 45.30 45.80 46.29 45.02 44.81 42.57 41.78 41.29 41.52 41.54 41.12 40.14
43.59 36.04 32.81 30.32 32.45 36.55 34.15 36.96 37.09 35.86 28.03 28.97 28.74 33.17 37.96 39.45 39.42 40.42 40.65 39.57 42.18 45.51 47.78 49.32 49.58 49.36 49.13 49.18 49.15 48.53 47.75 46.15 45.49 45.99 44.74 44.95 44.54 43.02 42.73 42.15 40.10 39.01 40.25 39.45
41.12 34.31 34.27 35.50 37.27 38.00 37.75 37.59 36.21 35.10 34.71 31.49 34.31 33.24 38.01 38.89 39.55 39.48 39.55 41.06 44.59 45.52 46.89 46.97 47.69 48.20 48.80 49.10 48.79 48.34 46.79 46.19 45.59 44.81 44.57 43.86 42.87 42.99 41.89 39.35 39.75 39.95 39.50 39.25
39.64 34.26 33.31 32.77 36.61 36.74 35.02 37.29 36.53 35.81 35.24 34.66 34.62 34.53 38.70 37.86 37.50 38.16 39.57 41.13 41.78 42.67 43.26 44.12 45.41 45.84 46.18 47.48 48.04 47.23 45.41 44.11 44.50 44.05 43.74 43.73 42.58 40.80 39.75 38.86 39.41 37.48 38.47 38.14
36.69 33.39 31.11 30.58 31.53 32.63 29.13 33.91 36.35 36.31 37.08 37.60 32.85 37.55 38.39 37.23 38.61 38.06 39.76 40.86 40.34 40.22 40.09 40.19 40.14 41.58 43.49 44.50 45.45 45.78 44.47 43.24 42.52 42.22 41.95 41.35 40.32 38.90 39.25 38.97 38.36 38.28 38.81 39.78
33.50 32.37 29.67 25.89 27.80 21.49 35.78 38.24 38.26 37.12 36.92 37.31 36.45 36.84 38.61 38.92 38.60 39.87 40.33 40.14 39.74 38.75 38.31 37.61 37.11 38.47 39.71 43.40 43.82 42.56 42.15 40.93 39.76 39.27 39.23 39.06 38.62 38.81 39.21 38.89 39.14 39.20 39.73 40.09
39.19 32.52 29.17 27.22 26.52 30.85 34.77 36.78 36.54 35.63 35.03 37.91 36.54 38.13 38.90 39.72 40.05 39.30 39.27 38.09 37.05 36.62 36.24 35.41 35.58 35.95 36.57 36.95 37.64 37.85 37.37 37.65 37.93 37.43 37.37 38.20 39.06 39.28 39.15 39.02 39.10 39.57 39.49 39.10
37.61 34.46 32.27 25.44 24.08 22.75 33.64 39.22 39.85 38.91 30.44 38.66 39.48 39.25 39.46 38.22 30.21 36.03 37.17 36.78 35.56 35.36 35.60 35.54 36.16 36.53 36.41 36.10 36.84 36.12 35.63 35.95 35.58 36.97 37.72 39.51 40.30 40.12 39.40 39.56 39.28 39.33 38.74 37.65
30.13 28.39 27.86 21.98 23.13 29.74 37.35 39.18 39.74 30.42 32.79 39.16 40.98 40.20 38.72 36.71 36.26 36.51 36.11 35.42 35.72 35.58 35.54 35.88 35.40 34.85 35.22 36.54 36.96 35.89 36.22 36.14 38.05 39.14 39.43 40.63 41.03 40.38 40.24 39.41 38.95 38.00 36.97 35.39
34.21 30.14 25.61 25.24 22.49 27.23 39.04 38.30 34.58 37.65 37.41 39.55 40.38 39.96 39.05 36.86 35.19 35.18 35.59 35.01 34.88 34.29 34.69 35.30 34.62 34.42 35.25 36.30 36.90 35.92 35.81 37.52 38.50 38.87 38.95 39.59 40.30 40.19 39.48 37.84 36.85 33.86 30.95 29.45
33.11 35.67 32.38 33.57 33.16 39.17 39.47 38.56 40.13 40.15 39.93 40.04 40.30 40.80 39.84 35.58 34.46 35.28 34.10 34.18 33.91 33.71 33.67 34.58 34.55 34.49 34.89 35.40 36.22 34.81 34.74 36.60 36.67 35.87 35.09 34.40 34.23 33.72 32.65 30.96 30.22 29.50 28.62 25.78
36.11 37.97 34.15 34.35 37.56 38.08 39.65 40.47 40.37 40.62 40.12 41.13 41.72 41.20 39.13 35.06 35.20 34.14 33.82 33.30 32.75 32.20 32.47 33.34 33.45 32.53 31.84 32.82 32.81 32.42 32.67 32.52 32.12 30.85 30.57 30.48 30.04 30.25 29.84 29.81 29.79 28.76 26.82 26.46
36.71 38.98 36.24 34.34 38.11 39.75 41.17 40.99 40.07 39.25 39.37 38.31 37.64 36.64 35.91 35.53 34.46 33.93 32.89 32.54 32.21 32.20 32.71 32.62 31.93 31.28 30.29 31.32 31.57 31.66 31.26 31.09 30.53 30.35 30.02 29.09 28.00 28.29 28.91 29.13 28.89 28.77 28.66 28.95
38.64 37.75 35.07 34.39 40.02 39.17 39.10 39.71 39.68 38.41 36.96 37.12 36.20 34.98 35.57 35.67 33.95 33.75 32.84 33.13 33.18 32.13 31.81 31.20 30.27 30.03 30.46 30.79 30.28 30.79 30.54 29.78 28.76 28.01 27.66 26.78 26.31 25.78 27.11 27.44 26.67 30.45 31.53 32.05

GFSCGP_sfc_wetblb_030.txt.gz
Wetbulb
51.78 48.01 45.05 46.55 47.70 47.55 46.57 44.99 44.08 47.32 50.07 49.78 49.44 49.80 53.52 56.69 56.98 56.42 57.08 57.13 57.39 57.71 59.53 60.92 62.34 63.42 63.23 63.95 63.30 63.35 63.21 64.48 65.46 64.94 62.13 61.53 62.90 64.98 65.67 65.85 65.32 63.85 62.76 61.15
47.88 45.30 47.93 48.52 47.78 46.82 46.74 45.02 44.56 47.15 48.19 47.85 48.42 48.23 52.74 56.01 56.60 57.45 57.92 58.57 58.36 59.00 59.22 60.21 61.33 61.82 61.99 63.04 63.81 64.03 64.09 64.98 65.49 64.64 63.02 62.99 63.73 64.71 65.54 64.90 64.22 63.45 62.09 61.10
46.63 47.27 49.14 47.78 47.23 45.90 46.58 45.20 44.80 44.40 46.51 47.72 47.59 45.87 49.66 54.21 56.89 57.49 58.58 59.44 60.05 59.32 59.39 60.20 60.70 61.51 62.22 62.16 62.97 63.63 64.51 65.03 65.24 64.89 63.48 64.09 64.55 63.35 62.90 61.79 61.98 62.68 61.54 60.72
48.11 49.37 47.07 47.12 45.96 47.30 44.13 48.36 46.36 45.39 44.18 41.08 46.42 39.38 46.05 50.62 52.99 55.21 56.56 57.90 59.30 59.93 60.55 61.41 62.16 62.59 62.60 63.19 64.00 64.33 64.37 64.88 65.33 65.67 64.21 62.68 62.00 61.35 62.15 61.63 62.27 61.63 60.49 59.58
45.78 46.76 46.45 45.86 46.21 48.53 45.41 48.76 47.13 46.70 45.19 43.78 43.16 41.34 45.35 48.89 49.78 52.69 55.88 57.58 59.18 60.44 60.82 61.13 62.15 63.38 64.41 64.34 64.13 65.13 65.34 65.14 65.28 65.25 64.26 63.19 62.84 63.72 64.06 61.44 60.73 59.28 57.94 56.69
47.94 50.01 49.22 48.37 48.91 49.07 49.52 47.53 47.12 46.96 45.81 38.55 42.61 42.23 43.23 45.88 48.37 50.27 54.19 56.65 58.51 59.85 60.88 61.83 62.96 63.97 64.36 65.28 65.10 64.98 65.19 65.03 64.99 65.05 64.59 64.29 63.57 63.69 61.46 59.47 56.58 55.38 52.57 52.81
46.16 46.59 49.14 49.68 46.88 48.67 48.41 45.62 39.32 37.67 37.92 36.65 43.28 41.52 43.93 48.19 49.76 51.39 52.08 54.26 57.97 59.61 60.39 61.31 61.90 62.81 63.96 64.37 64.97 64.81 64.85 64.35 64.84 64.79 64.28 64.51 64.05 62.95 60.10 57.82 55.53 53.30 53.08 50.54
41.40 39.68 46.33 49.95 48.11 46.11 46.67 45.60 39.59 31.84 34.08 37.99 42.51 38.93 44.72 49.85 51.66 52.77 53.71 54.26 54.96 57.62 60.10 60.99 62.08 62.88 63.66 64.52 64.94 65.13 64.37 64.21 64.77 64.48 63.81 63.29 62.58 61.52 59.56 57.89 55.03 52.90 51.17 49.17
41.75 41.39 47.67 49.14 49.89 48.89 45.56 43.14 47.02 41.11 40.84 38.65 41.47 43.66 48.02 49.40 49.26 52.28 53.21 53.80 54.79 55.88 56.58 58.88 61.00 62.80 63.40 64.25 64.81 64.94 64.25 63.53 64.74 64.59 64.25 63.68 62.76 61.34 59.34 56.90 55.31 53.83 51.97 50.96
45.74 40.54 46.46 48.40 50.03 48.93 47.90 48.96 41.45 43.06 33.66 31.92 38.64 39.66 41.89 45.15 46.91 49.28 50.10 52.09 53.98 56.10 56.11 56.69 58.39 60.33 62.07 63.74 64.74 65.19 65.19 63.63 64.21 64.71 64.32 63.79 63.06 61.32 58.40 56.95 54.15 51.74 51.77 52.06
47.70 44.90 43.87 47.42 45.95 45.24 45.25 44.43 44.46 44.61 42.23 35.84 34.05 39.27 47.67 46.90 48.46 48.88 50.48 51.48 53.74 55.45 56.84 57.83 57.75 59.17 60.45 62.26 63.54 63.65 63.80 62.98 63.79 65.06 64.52 63.84 62.75 59.54 56.83 55.93 54.98 54.43 54.59 52.36
48.56 45.56 40.69 42.69 47.64 49.34 48.77 46.24 46.36 40.80 38.73 41.32 39.63 39.70 49.18 50.25 50.75 50.76 51.55 51.04 52.97 55.54 56.34 58.43 58.93 59.44 59.97 61.04 61.86 62.19 63.03 63.24 63.92 64.51 64.06 63.51 60.80 59.11 58.12 57.38 56.37 54.88 54.00 47.83
48.11 43.59 38.61 40.21 43.84 46.87 45.42 46.99 47.08 45.59 44.25 39.72 38.39 40.57 49.09 50.04 50.60 51.63 51.52 52.29 51.83 52.58 55.97 57.88 59.38 59.55 60.32 60.76 61.07 61.44 62.06 62.38 63.00 61.95 60.78 60.81 60.01 58.11 56.71 54.97 53.42 50.80 46.86 45.07
48.51 45.28 41.60 37.58 40.67 44.71 42.73 44.70 46.29 45.27 40.72 40.75 41.25 42.65 46.59 48.87 49.72 51.26 52.01 52.04 52.04 53.78 54.30 57.16 58.80 59.52 60.22 60.56 60.58 60.81 60.77 61.28 60.57 59.45 59.49 58.90 57.90 57.64 57.14 55.20 52.73 51.73 49.77 46.52
48.82 42.06 43.93 44.05 44.60 44.58 43.78 43.57 44.52 43.06 43.91 40.93 42.89 43.81 46.68 48.63 50.39 51.46 50.60 50.52 51.67 53.21 54.61 56.22 57.84 58.95 59.60 59.48 59.28 59.17 59.15 57.96 57.70 57.10 57.05 56.56 56.65 56.24 55.07 54.15 53.67 52.15 49.58 46.23
48.80 42.49 44.58 41.92 44.55 43.69 42.18 44.14 44.47 44.38 44.47 44.20 44.99 44.92 50.04 51.24 51.32 49.78 48.98 50.80 51.31 51.88 52.74 53.63 54.19 54.30 54.22 55.29 56.82 56.49 56.44 55.63 55.88 54.77 54.13 53.84 53.34 52.44 51.44 49.57 47.29 44.94 43.52 42.70
45.83 44.22 41.51 38.08 42.57 41.88 37.07 42.48 44.10 44.84 46.08 45.57 43.03 47.60 50.42 49.53 49.64 50.04 50.49 51.02 50.25 49.69 50.05 50.37 51.26 52.17 53.00 53.36 54.33 54.15 53.57 54.01 53.36 52.59 51.89 51.30 50.66 49.31 48.40 47.16 44.87 42.78 41.08 41.49
44.81 43.67 43.19 39.10 37.54 33.03 44.11 47.46 47.96 45.92 46.74 48.65 48.20 48.97 49.75 49.92 50.39 49.98 51.88 50.62 48.69 48.31 48.31 48.98 49.75 50.20 50.97 51.80 51.70 51.90 51.65 50.92 50.11 49.34 48.95 49.11 48.68 47.02 46.27 45.14 43.41 41.17 42.14 42.25
48.38 45.13 40.34 38.55 37.53 41.95 42.55 44.27 45.17 44.97 45.43 49.73 48.73 49.56 49.54 48.79 48.45 46.58 49.54 50.43 48.92 48.33 48.27 48.31 49.12 49.13 49.41 49.15 49.58 49.36 48.71 48.36 47.57 46.61 46.52 46.92 46.98 46.52 46.14 45.02 44.37 45.01 44.86 44.53
44.56 45.60 44.32 37.46 35.89 34.64 44.27 48.54 50.11 48.86 41.51 50.37 49.96 49.49 48.52 48.24 44.54 48.11 46.85 46.68 46.38 47.06 47.47 47.18 47.45 47.78 47.73 47.83 48.50 47.54 46.67 46.39 45.54 45.79 45.86 46.55 46.55 45.91 45.34 45.50 44.63 44.93 44.44 43.62
39.20 40.49 39.63 39.46 39.00 42.48 47.89 48.24 49.18 40.26 43.86 50.99 51.17 50.52 49.46 47.47 50.08 49.33 46.93 45.90 46.47 46.07 45.58 46.66 46.82 46.15 46.52 47.50 47.51 45.93 45.53 44.43 45.32 45.86 45.47 45.16 45.39 44.44 44.03 43.61 41.67 39.62 38.77 38.73
40.33 39.69 39.54 41.23 38.69 36.62 48.79 46.20 44.76 50.54 51.73 51.58 51.54 51.66 50.50 49.52 47.55 45.92 45.47 44.38 44.17 43.90 44.52 45.28 44.90 44.86 46.14 46.92 46.29 44.53 43.47 44.59 44.89 44.41 43.35 42.42 41.26 40.38 41.10 41.30 41.34 41.06 40.69 39.66
39.13 44.73 43.61 44.28 44.46 51.15 49.92 51.48 52.50 52.84 51.90 50.71 51.65 51.54 51.59 46.72 45.73 45.16 44.09 44.15 43.95 44.15 44.41 44.67 44.02 43.36 44.37 44.86 44.38 42.35 42.55 42.79 41.78 40.65 39.77 39.60 39.73 39.85 39.85 39.72 39.26 39.44 39.10 38.14
44.66 45.73 44.88 44.00 48.87 49.29 50.04 51.71 50.66 50.90 51.33 51.20 52.13 51.82 49.42 46.85 45.81 44.55 43.90 43.33 43.36 43.87 43.62 43.33 41.75 40.41 39.55 40.74 40.79 40.56 40.46 40.39 39.62 38.25 37.75 37.87 36.50 36.89 36.76 37.42 36.18 35.59 34.55 33.29
46.11 44.51 46.02 46.43 48.85 46.57 49.35 51.27 52.00 50.12 50.09 49.82 51.73 50.97 49.33 47.38 45.46 44.45 43.21 42.73 43.11 42.89 42.02 41.78 40.34 39.00 38.10 38.72 38.47 38.93 38.89 38.74 36.81 35.80 34.72 34.66 34.10 33.65 33.75 33.22 32.56 31.35 31.94 29.21
46.28 46.15 44.11 45.08 50.64 50.54 51.88 53.11 52.29 50.08 49.05 49.97 50.21 48.69 48.79 47.52 45.20 44.35 42.92 43.09 42.11 40.80 40.31 39.41 38.40 37.24 36.45 36.21 35.59 35.72 36.28 36.32 35.06 32.87 32.30 31.27 32.27 32.28 31.91 31.43 32.03 26.55 26.26 25.62

GFSCGP_sfc_wetblb_033.txt.gz
Wetbulb
53.13 48.86 46.15 47.86 48.99 48.33 48.47 46.59 46.07 48.44 51.76 49.89 50.06 49.74 53.42 57.05 57.37 56.38 56.86 56.55 56.82 57.25 59.42 60.77 61.80 61.41 61.92 62.03 61.65 61.81 61.93 62.98 63.74 63.30 62.37 60.89 60.12 62.45 64.73 66.15 66.37 66.25 65.31 64.35
50.46 46.37 49.71 50.67 48.88 47.56 47.55 45.91 45.95 48.40 49.62 48.77 48.73 49.30 51.62 55.80 56.68 57.50 57.13 57.08 57.80 57.56 58.40 59.86 61.24 62.46 62.10 62.13 62.74 62.69 62.43 63.52 63.95 63.46 63.28 61.78 61.90 62.76 64.90 66.81 66.26 66.25 65.52 64.12
47.54 49.14 50.91 48.24 47.48 46.56 46.67 45.89 45.46 45.44 48.47 49.51 48.37 47.32 49.13 53.33 56.63 58.08 58.34 58.67 58.44 58.34 58.30 59.24 60.01 61.59 62.61 62.52 62.76 63.24 63.60 64.06 64.73 64.66 64.08 62.01 62.22 63.82 63.58 64.47 64.67 65.30 65.03 63.91
48.70 51.39 48.43 47.43 46.86 47.66 43.90 48.74 47.63 46.09 45.35 41.05 48.69 40.57 46.76 50.30 52.69 55.75 57.45 58.00 58.06 58.42 59.79 60.00 60.24 60.55 61.78 62.68 64.18 64.16 64.20 64.07 64.66 65.10 63.57 61.62 61.16 60.71 63.17 63.90 64.50 63.93 64.45 63.64
47.19 48.59 47.40 46.52 47.17 49.14 46.22 50.09 47.98 47.86 46.13 45.64 44.57 41.58 44.31 48.49 48.77 52.31 55.83 57.78 58.57 59.14 59.54 59.92 60.83 61.39 62.17 63.34 63.39 64.36 64.46 64.63 65.05 65.09 64.46 63.22 62.42 63.05 63.66 64.05 63.94 63.54 64.22 63.15
49.15 51.97 50.09 48.89 50.15 49.74 50.36 48.22 48.02 48.01 46.03 40.01 43.24 43.07 41.98 45.80 48.31 50.60 54.11 56.77 58.48 58.90 59.83 60.47 61.80 63.01 63.28 64.06 64.79 65.05 64.19 64.00 64.84 65.24 65.05 65.46 63.91 63.51 63.20 64.23 62.68 62.65 61.78 60.57
47.19 47.98 50.27 51.07 48.13 50.22 48.99 46.06 39.54 37.80 38.80 37.94 45.29 42.70 44.52 48.20 50.36 51.00 51.42 54.43 57.42 59.61 59.73 59.91 60.40 61.48 62.80 64.15 64.97 64.82 64.35 63.77 64.72 65.14 65.12 65.40 64.53 64.58 63.99 63.26 62.22 60.61 58.97 55.77
41.91 40.32 47.44 50.31 48.48 46.74 46.99 46.07 40.40 31.20 34.14 39.18 44.82 39.67 44.19 50.67 52.32 52.38 52.87 53.73 55.19 58.21 59.98 60.32 60.73 61.35 62.40 63.53 65.04 65.29 64.77 64.15 64.77 65.60 65.32 66.00 64.31 63.92 64.76 63.59 62.36 60.02 55.86 52.14
42.64 42.95 49.38 49.92 50.57 49.72 46.90 44.47 47.86 42.26 43.52 39.89 42.65 45.03 48.32 50.95 49.93 51.10 52.46 53.81 55.08 56.16 58.23 60.01 61.02 62.18 62.88 63.68 65.00 66.50 65.39 64.95 65.36 65.69 64.52 65.44 64.95 64.30 64.75 64.06 62.88 58.52 54.46 54.31
46.59 42.01 47.71 48.83 50.67 50.59 48.39 50.32 42.97 43.90 34.87 33.40 39.79 41.71 42.83 46.29 47.75 49.62 49.93 52.34 53.88 56.17 57.52 58.21 59.90 61.80 63.14 64.19 65.30 67.55 66.43 65.83 65.76 65.97 65.09 65.25 65.24 64.66 64.11 62.97 59.30 56.26 55.29 54.42
47.88 45.93 45.44 48.53 46.42 45.38 46.33 45.58 46.41 45.57 43.85 36.84 35.49 40.39 48.34 47.80 49.01 49.60 51.11 51.76 53.00 55.05 57.25 58.90 59.07 60.37 62.09 63.94 64.87 65.69 66.25 66.16 66.21 66.04 66.07 65.80 64.46 63.48 63.04 61.00 58.36 56.83 55.33 54.30
48.55 46.67 42.14 44.41 49.06 49.81 48.60 46.95 47.01 42.04 40.23 43.04 42.32 41.86 49.91 50.25 51.26 51.45 51.21 52.30 53.93 55.74 56.84 59.29 60.35 60.50 60.55 61.84 63.14 64.66 65.51 65.40 66.06 65.94 65.49 64.47 62.74 60.23 59.20 58.49 57.86 57.18 56.46 56.27
49.03 44.86 39.49 42.15 45.69 48.38 46.06 48.30 48.36 46.84 46.58 39.76 38.99 40.89 50.61 50.70 50.65 51.69 52.09 52.95 54.08 54.27 56.01 59.03 60.62 60.45 61.00 61.69 62.73 63.42 64.07 64.30 64.74 65.08 65.23 64.46 60.85 59.16 58.19 57.67 57.73 56.70 55.12 52.71
49.61 45.73 42.46 39.29 42.41 45.63 43.36 45.32 47.27 46.54 42.99 42.33 42.90 44.09 47.59 49.07 49.92 51.36 52.40 53.43 54.15 54.49 55.16 57.44 60.31 61.24 61.45 61.74 62.07 62.58 63.10 63.89 64.00 63.59 62.50 62.25 61.06 58.96 58.18 57.54 55.75 53.59 49.66 46.75
49.33 43.04 44.37 44.83 45.90 45.65 44.47 44.50 45.38 44.58 45.38 41.72 44.62 44.68 47.49 49.53 50.60 51.00 53.52 53.40 53.03 53.79 55.81 57.37 59.18 60.65 61.36 61.60 62.04 62.50 61.86 61.65 61.46 60.94 60.69 59.96 59.32 59.11 57.56 56.43 55.12 53.50 51.18 49.22
49.75 43.08 44.69 42.72 45.25 44.82 43.06 44.75 45.31 45.67 45.96 45.84 46.16 45.49 50.41 51.37 51.97 51.28 51.91 52.27 53.18 54.57 55.81 57.60 59.34 60.03 59.91 60.49 60.43 59.66 58.87 58.48 58.89 57.94 56.97 57.06 56.64 56.02 55.23 54.02 52.15 50.93 49.85 47.89
46.05 44.67 42.15 38.89 43.96 43.60 39.79 43.79 44.96 45.52 46.62 46.33 43.27 47.31 50.18 49.60 50.93 51.65 51.94 53.09 53.64 54.30 55.13 55.69 55.75 55.84 56.38 56.83 56.90 55.94 56.09 56.72 55.84 55.01 54.46 54.06 53.48 51.97 51.12 50.16 48.64 47.33 46.26 45.39
45.81 44.87 43.89 40.37 41.47 33.40 44.13 49.15 48.44 46.70 47.32 48.31 47.89 48.63 50.06 51.27 52.37 52.92 53.51 54.11 53.55 53.45 53.55 53.73 53.76 53.83 54.48 55.09 54.70 54.75 54.41 53.70 52.89 52.25 51.95 51.91 51.06 49.64 49.20 48.08 46.38 44.63 44.25 43.76
48.72 45.84 41.98 38.85 37.96 41.74 44.00 46.94 46.95 45.81 45.54 49.65 48.99 50.16 51.38 52.23 52.01 51.30 53.92 54.96 53.59 52.87 53.18 53.27 53.63 53.14 53.16 52.87 53.07 52.30 51.57 51.18 50.58 49.71 49.66 49.75 49.82 48.52 47.86 46.80 46.62 46.64 46.14 45.61
47.18 48.37 44.00 41.30 36.26 33.54 44.13 49.06 51.51 50.52 42.97 50.53 51.10 50.96 50.91 51.43 46.23 49.80 52.89 53.30 52.32 52.27 52.12 51.60 51.99 52.20 51.82 51.80 52.08 50.72 49.75 49.21 48.37 48.65 48.73 49.12 48.90 47.95 46.75 45.22 44.76 44.68 44.85 44.38
40.37 41.34 40.32 40.55 39.05 42.37 48.43 50.39 52.18 41.75 44.11 51.66 51.92 51.89 51.48 49.81 51.72 53.52 52.37 50.92 51.46 51.23 51.04 51.21 51.37 50.77 50.72 51.32 50.84 49.04 48.46 47.23 48.11 48.35 48.24 47.59 46.98 45.42 44.99 44.88 44.27 43.27 43.49 43.10
39.75 39.49 40.30 42.05 39.03 36.80 50.79 50.39 45.70 50.42 53.49 53.72 53.86 53.05 52.35 53.10 52.79 51.19 50.31 49.78 49.82 49.45 49.25 50.36 49.46 49.24 50.10 50.48 49.49 47.78 46.63 47.47 47.23 46.36 45.48 44.86 44.49 43.52 44.05 43.73 42.92 42.10 41.81 41.13
37.08 44.80 43.31 44.89 44.49 51.46 52.79 51.99 53.94 54.31 53.92 54.66 54.00 53.63 53.61 52.78 50.89 50.10 49.23 49.02 48.78 48.71 49.19 49.57 48.76 48.06 48.72 49.04 48.44 46.41 46.14 46.32 45.22 43.70 42.31 41.62 41.66 41.54 41.88 41.31 40.69 40.84 39.89 38.55
45.73 48.15 45.41 46.62 49.48 50.83 52.92 53.86 54.85 55.41 54.98 55.38 55.14 54.27 54.42 52.47 50.99 49.74 49.09 48.59 48.42 48.99 48.45 48.61 47.33 46.26 45.62 46.55 46.24 45.37 44.56 44.16 42.98 41.25 40.52 40.15 39.60 38.70 39.21 39.01 37.74 36.85 35.65 34.31
45.54 47.53 45.60 46.37 48.95 51.05 52.38 53.72 54.75 54.55 54.50 53.87 53.66 54.28 54.18 52.57 50.60 49.68 48.61 48.30 48.57 48.26 47.83 46.75 45.30 43.88 43.12 43.68 43.01 43.11 42.79 42.18 39.94 38.93 38.08 37.38 36.66 36.52 35.75 34.98 33.62 33.26 30.62 29.02
47.34 45.98 44.33 44.90 49.84 51.73 52.10 54.31 55.75 54.42 53.22 52.91 52.70 53.12 53.55 52.52 50.41 50.00 48.73 48.52 48.07 46.83 46.12 45.05 44.00 42.84 41.70 41.32 40.69 40.89 40.94 40.14 38.07 35.98 35.38 34.87 34.83 34.45 34.38 34.02 31.70 26.93 27.17 25.89

GFSCGP_sfc_wetblb_036.txt.gz
Wetbulb
50.26 45.91 43.29 46.20 48.30 47.67 46.57 45.92 45.44 48.09 50.97 49.34 49.18 48.74 51.08 52.96 55.43 54.90 54.76 54.94 55.31 56.39 58.49 58.80 58.89 59.26 57.62 57.16 56.78 57.39 57.98 58.52 59.38 58.92 58.50 60.06 57.53 59.31 60.05 63.21 64.33 64.22 64.07 63.12
47.60 44.63 48.86 50.10 49.58 47.56 46.46 44.49 44.94 48.14 50.60 48.99 47.12 49.07 50.63 51.79 55.07 54.55 55.31 54.98 54.88 55.98 57.48 58.13 58.41 59.42 58.72 57.82 58.42 59.63 60.32 60.51 60.31 60.86 61.52 61.21 59.41 59.41 60.59 63.59 64.01 63.46 63.05 62.56
45.81 48.34 51.65 49.06 47.45 46.04 45.51 44.33 44.71 45.22 48.00 49.44 47.13 44.99 48.73 52.91 55.33 55.86 56.20 57.19 57.09 55.61 56.36 57.80 58.47 58.68 59.63 58.98 59.35 60.36 61.10 61.26 61.54 62.05 62.17 62.03 60.44 60.08 59.75 62.78 63.24 63.30 63.79 63.02
47.70 50.59 49.23 47.76 45.82 46.48 42.78 47.39 47.22 46.55 45.02 40.31 47.97 38.71 46.16 50.63 51.57 54.28 55.40 56.32 56.45 57.03 57.20 58.22 58.50 59.46 59.09 60.28 60.88 61.12 61.00 60.95 61.76 62.39 60.87 60.33 57.80 56.46 59.43 62.01 62.89 63.07 63.60 62.91
45.94 47.64 47.00 46.21 45.81 47.79 45.23 49.26 47.68 47.19 44.67 44.51 44.43 41.36 44.52 48.76 47.70 51.27 54.98 56.31 57.21 57.64 57.97 57.41 58.33 59.76 61.30 61.78 61.56 61.77 62.15 62.02 62.48 62.73 62.41 61.10 58.54 58.98 60.06 61.80 62.03 62.23 62.44 62.47
47.86 51.38 49.69 48.92 48.95 49.11 49.78 48.01 47.70 47.16 44.71 38.55 43.39 42.37 42.23 45.17 47.44 50.18 53.91 56.03 57.19 57.69 58.14 58.93 59.52 60.11 60.85 61.65 62.20 62.63 62.12 62.30 62.78 62.83 62.52 61.98 59.42 59.92 60.16 60.52 60.96 61.24 61.23 61.87
46.12 46.71 50.05 50.51 46.34 49.18 48.12 45.19 38.11 36.25 36.54 36.77 45.03 42.44 44.21 48.37 49.81 50.24 52.94 53.02 54.30 57.95 58.21 58.25 58.98 59.28 59.88 60.44 61.29 62.26 62.18 61.95 62.86 62.99 63.22 62.29 62.17 61.14 60.63 61.23 61.58 60.27 59.88 58.26
40.92 39.03 46.58 49.48 47.11 45.53 46.05 44.86 39.32 32.08 33.87 37.52 43.43 39.64 43.56 50.40 51.94 52.43 52.98 54.97 54.89 57.56 58.39 58.82 58.73 60.10 60.58 60.78 61.33 61.68 61.83 61.61 62.41 62.84 63.13 63.35 62.77 62.52 61.99 61.58 60.93 60.27 59.09 56.18
41.30 41.21 48.37 49.27 49.44 48.47 46.00 42.44 47.31 41.59 42.70 37.50 38.23 45.12 48.35 50.11 50.28 50.49 50.97 53.08 54.79 54.96 58.33 58.66 59.60 60.05 61.24 61.96 62.18 62.35 62.43 62.39 62.56 62.86 62.86 62.66 63.71 62.00 61.28 61.77 61.58 59.72 57.06 54.00
45.89 40.83 47.32 48.66 49.64 49.40 47.18 48.73 41.93 43.10 34.02 32.07 38.78 41.41 42.04 46.33 47.79 49.27 50.16 51.77 54.09 56.29 57.72 58.45 59.72 60.27 61.12 61.82 63.51 64.03 63.71 63.17 63.35 63.51 63.65 63.40 62.00 62.07 61.93 61.85 61.36 58.44 55.12 53.94
47.40 45.16 44.34 47.72 45.54 43.93 45.05 43.87 45.32 45.62 42.86 35.93 34.36 39.20 48.44 47.86 49.41 49.88 50.93 52.54 53.72 55.22 57.52 58.12 58.73 59.52 61.26 62.06 61.81 63.53 64.06 63.98 63.88 63.96 63.76 62.86 61.02 59.65 59.51 62.14 60.29 56.58 55.41 54.76
47.76 45.42 40.11 42.93 48.14 49.33 47.79 45.99 45.41 39.73 39.24 42.48 41.45 40.50 50.42 50.37 50.66 52.15 52.08 53.08 53.72 55.27 56.80 58.54 59.28 59.70 59.92 60.83 62.57 63.82 64.01 64.43 64.92 64.21 62.47 62.51 62.68 62.74 61.23 59.53 58.26 57.18 55.80 54.62
47.55 42.54 37.41 40.77 44.89 48.09 45.19 46.13 46.80 46.73 45.59 41.17 37.81 39.84 51.05 51.14 50.59 51.56 51.89 52.45 53.28 54.56 55.41 58.10 59.24 59.38 59.53 60.33 61.26 62.31 63.79 64.17 64.73 64.57 62.60 62.22 60.87 59.29 58.74 57.54 56.61 55.68 54.62 53.47
49.19 45.05 41.18 36.50 41.20 45.06 43.27 44.81 46.15 45.85 40.73 40.95 41.44 43.51 46.49 49.33 49.18 50.82 51.69 53.05 53.00 53.89 54.33 56.14 58.66 59.55 60.30 61.12 61.67 62.16 62.55 63.07 63.02 62.92 60.61 60.49 59.53 58.67 57.64 56.75 54.61 50.18 48.21 46.16
48.82 41.84 43.40 44.49 45.20 45.45 44.65 44.17 44.44 43.45 45.34 41.74 43.23 44.03 48.03 49.99 49.56 50.66 52.86 53.87 53.09 53.33 54.04 55.38 58.32 59.55 60.15 60.51 61.14 61.79 61.81 61.63 61.84 60.84 60.10 58.24 58.51 57.90 56.99 55.40 53.39 51.07 48.34 46.52
49.67 41.66 43.34 41.14 45.03 44.41 42.63 44.78 45.06 44.70 44.82 44.47 45.42 45.09 50.45 51.92 51.77 50.72 50.85 52.29 52.37 52.93 54.33 55.99 57.69 60.11 60.04 60.52 60.52 60.31 59.56 59.37 59.74 58.62 57.45 57.87 57.61 56.77 55.32 53.32 52.22 50.73 48.70 47.95
45.53 43.89 41.41 37.59 43.59 41.97 37.11 42.91 44.41 45.26 46.53 46.06 42.35 47.23 50.50 49.86 50.03 50.46 51.85 51.90 51.97 53.92 55.35 56.89 58.60 59.09 59.64 59.12 58.60 56.86 56.84 57.20 55.77 54.88 54.93 54.34 53.50 51.58 50.46 49.46 47.98 46.55 45.33 44.50
42.66 44.24 42.67 37.91 38.80 30.63 43.09 48.14 47.02 45.29 46.26 47.68 47.48 48.20 49.36 49.67 50.85 53.35 53.40 53.51 53.32 54.61 55.51 56.31 55.86 56.16 56.28 56.23 55.52 55.23 55.03 54.00 53.16 52.48 52.06 51.77 50.71 49.26 48.17 46.52 44.28 43.06 42.49 41.67
43.83 42.73 40.33 36.27 36.27 40.62 42.76 45.90 45.73 44.96 44.51 48.73 47.69 49.16 49.81 50.23 50.98 52.08 54.39 55.20 54.89 54.78 55.01 54.65 54.69 54.43 53.98 53.52 53.58 52.62 51.64 51.28 50.70 49.97 49.59 49.37 48.76 47.25 46.00 44.56 43.85 43.90 43.08 43.16
42.14 44.88 41.59 39.73 34.31 31.63 42.86 48.08 50.18 49.55 40.21 49.81 49.90 49.89 49.98 51.17 45.91 49.87 53.39 55.04 54.08 54.13 53.88 53.12 53.15 52.72 51.99 51.77 51.62 50.29 49.28 48.84 48.13 48.55 48.56 48.79 48.27 46.95 45.38 44.62 43.72 43.95 44.02 43.01
33.70 38.40 38.08 37.73 36.44 40.95 47.36 49.07 50.22 39.56 42.08 52.13 52.44 51.40 52.15 50.90 52.41 54.08 53.81 53.38 53.52 53.07 52.46 52.59 51.90 50.72 50.88 51.14 50.44 48.49 48.05 47.03 48.15 48.46 48.05 47.39 45.85 44.63 44.44 43.98 43.80 42.45 41.65 41.32
35.70 35.75 38.06 39.70 35.47 33.41 50.63 48.71 43.91 48.88 53.97 54.21 53.49 54.34 55.11 53.85 53.24 52.67 52.51 51.79 51.66 51.04 51.01 51.19 50.17 49.71 50.35 50.42 49.11 47.44 46.19 47.39 47.04 46.28 45.75 44.99 44.62 44.02 43.70 42.37 42.36 42.01 40.30 38.29
35.86 39.57 40.01 40.28 41.86 50.06 50.22 49.46 52.99 54.96 54.51 54.36 54.86 55.01 54.50 53.43 52.00 51.74 50.52 50.47 50.53 50.37 49.85 50.66 49.26 48.67 49.26 49.30 48.64 46.21 45.93 46.15 45.50 44.67 43.38 42.58 42.33 42.03 41.59 39.72 38.58 37.68 37.23 34.18
43.26 45.24 40.29 39.84 45.83 47.49 51.28 53.04 53.81 54.60 54.41 54.40 55.27 55.18 54.99 53.31 52.15 50.78 50.32 49.94 49.51 49.58 49.27 49.63 48.40 47.52 46.95 48.02 47.75 46.32 45.97 45.29 43.13 40.85 40.06 39.54 38.24 37.97 37.68 36.85 35.91 34.25 30.80 30.11
43.66 43.96 43.12 42.63 44.30 44.50 48.23 50.99 53.29 54.42 55.11 55.31 55.08 54.75 54.35 54.08 51.90 50.57 49.48 49.16 49.01 48.94 49.07 48.60 47.12 46.28 45.82 46.02 44.75 44.64 43.88 43.03 40.63 39.19 37.68 36.31 35.94 35.01 33.32 30.23 30.23 28.36 26.35 26.99
45.55 43.97 41.55 40.50 47.66 48.13 49.28 51.67 53.65 52.69 52.03 54.37 53.41 52.90 53.88 54.47 52.02 51.23 49.48 49.08 48.93 48.39 48.05 46.93 45.92 44.50 43.29 42.78 42.03 42.34 42.19 40.47 37.93 35.95 34.74 33.07 32.46 31.70 32.67 29.97 27.51 28.60 26.86 26.40

GFSCGP_sfc_wetblb_039.txt.gz
Wetbulb
46.35 40.31 37.07 39.88 42.71 44.57 43.77 41.88 40.55 43.47 49.12 48.29 46.72 45.14 45.71 49.43 51.44 52.43 51.39 52.31 54.32 52.90 55.14 54.68 54.27 54.67 53.12 52.26 52.55 54.04 53.36 53.05 53.87 52.55 52.56 52.59 53.00 55.86 56.79 58.09 62.02 61.92 61.82 62.07
43.08 39.43 44.33 46.57 46.26 45.22 44.97 41.76 39.93 44.01 49.21 47.18 45.71 43.95 45.93 48.49 50.76 51.11 51.17 52.02 53.48 53.50 54.10 54.80 54.92 53.61 52.79 51.38 52.07 52.33 52.78 53.16 54.91 54.11 53.80 53.99 56.51 55.13 56.85 57.35 60.93 62.05 62.27 61.51
40.79 43.76 47.91 46.50 45.54 44.38 44.26 41.44 40.60 41.92 45.54 47.48 44.64 43.35 46.41 50.42 51.27 53.41 52.09 52.24 53.63 53.49 53.25 54.40 54.70 53.47 52.78 52.44 52.64 52.65 53.36 56.58 55.92 56.39 55.88 57.27 56.95 54.69 55.04 56.65 59.43 61.53 59.82 58.64
43.84 47.77 46.53 46.08 45.37 45.24 40.13 45.50 44.79 44.02 41.22 35.98 43.94 32.92 44.92 47.20 49.92 51.70 51.92 51.82 51.66 53.69 54.95 55.08 55.65 53.81 53.31 54.12 55.19 55.99 56.89 58.20 57.83 58.08 57.99 57.77 57.49 55.88 55.71 56.11 59.98 60.03 60.61 59.87
42.61 44.12 44.47 44.29 45.55 46.54 42.73 46.66 45.75 44.69 40.18 38.13 40.27 35.88 39.82 47.94 47.07 49.54 50.75 52.63 52.68 54.04 54.61 54.79 55.19 56.22 56.12 55.46 55.86 57.52 58.40 58.71 58.59 58.36 58.84 58.50 57.35 57.05 56.16 57.90 60.06 60.23 60.51 60.77
45.09 48.97 47.01 45.52 48.16 47.18 47.26 46.33 45.16 43.46 39.88 31.16 38.26 37.89 36.99 43.87 47.39 50.42 52.04 53.41 53.75 53.02 54.74 55.85 56.75 57.16 57.32 57.41 57.33 57.88 58.35 58.87 59.16 59.32 59.36 59.10 57.95 55.03 54.42 55.07 59.67 59.84 60.66 60.48
42.98 44.00 47.14 48.46 44.33 46.45 44.35 40.99 33.07 30.37 29.43 28.45 42.56 39.10 39.57 44.01 47.33 49.27 52.08 52.95 53.86 54.98 54.35 55.27 55.95 56.76 57.00 57.33 57.52 58.04 58.08 57.80 58.68 58.88 59.46 59.42 58.24 56.13 55.85 56.34 57.81 58.62 58.09 57.46
36.69 34.93 44.15 47.54 45.27 42.93 42.53 41.60 32.82 27.01 26.17 32.95 41.33 35.62 41.09 48.02 49.05 50.32 54.40 54.49 53.98 53.61 54.89 54.77 55.88 56.84 57.75 58.12 58.56 58.75 58.67 58.73 59.52 59.54 59.66 60.11 59.59 58.45 57.97 57.48 58.09 58.27 59.25 59.37
37.03 37.87 46.14 47.04 47.56 46.19 42.33 38.53 43.64 36.84 39.51 33.11 36.50 42.45 46.85 48.21 47.52 48.17 48.44 50.54 49.63 50.78 52.94 54.78 56.14 56.64 57.36 58.64 58.78 59.22 59.74 59.67 60.00 59.82 59.98 60.03 60.10 59.56 58.85 59.24 59.84 60.11 60.01 56.06
42.11 36.89 44.87 46.75 47.37 46.84 43.96 45.90 37.84 37.94 29.42 27.22 34.97 37.36 39.26 44.75 45.72 47.08 45.93 48.02 49.94 51.63 53.50 54.86 55.62 56.91 57.55 58.22 59.24 59.46 59.90 60.21 60.44 60.44 60.14 60.59 60.55 60.18 59.93 59.35 57.18 57.67 55.48 55.35
43.90 40.28 40.29 45.55 42.99 41.81 41.72 40.39 42.01 41.99 38.50 30.35 27.03 33.21 44.10 45.67 46.42 45.65 45.24 47.35 48.57 50.18 51.34 52.75 54.03 54.90 57.80 59.34 58.94 58.95 59.44 59.66 60.66 60.10 60.45 60.16 60.32 60.75 60.83 59.98 59.08 57.56 54.63 54.30
44.93 41.09 35.54 39.44 46.25 47.33 44.29 42.51 41.92 34.35 34.67 37.79 34.18 35.17 46.79 46.63 46.94 48.13 47.97 48.05 48.08 51.21 52.51 52.89 53.14 53.69 54.29 56.06 59.20 59.17 59.97 60.29 57.92 58.32 60.47 60.23 59.57 59.63 58.03 58.14 56.96 55.40 53.45 54.22
44.54 40.12 33.44 36.54 41.64 44.53 42.65 43.62 44.16 42.60 39.52 35.28 30.20 34.76 46.15 46.95 47.36 48.12 46.73 47.47 49.05 49.73 51.62 53.08 53.74 54.12 54.33 55.01 56.56 59.19 60.75 60.36 59.23 58.80 60.25 59.86 59.79 60.69 58.24 57.20 56.72 54.93 54.19 53.80
46.24 41.73 37.55 32.67 37.22 41.83 39.43 42.43 43.41 41.75 33.36 35.08 34.56 38.86 43.84 47.10 46.36 46.70 47.09 46.85 46.73 48.69 51.19 52.95 53.21 54.15 54.62 55.98 56.99 58.17 59.05 60.30 60.55 60.59 59.41 57.60 56.88 56.56 55.88 55.54 54.35 52.49 51.76 50.73
45.63 38.40 40.36 40.92 42.49 43.60 42.93 42.86 42.89 41.01 41.59 37.74 39.88 41.18 44.38 46.94 48.02 49.24 49.32 49.71 50.48 50.58 49.65 52.43 53.35 53.82 55.33 56.50 57.35 57.86 57.59 58.06 59.77 59.12 57.56 56.40 56.08 55.84 54.44 52.80 50.62 48.57 48.36 47.25
45.81 38.12 39.56 37.30 42.10 42.86 40.74 42.95 43.13 42.56 42.04 43.55 43.67 42.31 48.14 49.80 48.66 48.18 48.59 49.38 48.73 49.17 50.10 51.48 55.28 56.03 56.79 56.87 56.66 56.78 56.11 56.34 56.98 56.04 55.88 56.29 56.08 55.17 54.30 52.15 49.73 48.36 46.35 45.44
40.74 38.08 37.25 33.25 39.32 39.12 33.05 39.85 42.05 42.87 44.46 43.69 39.07 43.81 48.59 47.54 48.08 48.76 48.59 49.66 48.71 49.04 50.43 52.08 55.74 56.28 56.61 56.59 56.07 54.39 53.94 53.58 53.53 53.32 52.80 51.38 50.52 49.00 47.91 48.69 48.85 47.13 44.93 41.65
36.91 36.12 37.05 30.61 35.12 28.22 39.86 45.22 44.89 42.51 43.95 44.89 44.08 44.55 44.97 46.48 47.67 48.50 50.91 49.47 48.00 50.57 52.35 54.11 53.91 53.55 54.32 54.09 53.50 52.34 52.06 51.49 50.77 50.00 49.49 49.02 47.77 46.15 44.31 42.79 41.05 40.08 39.80 39.19
41.85 36.52 32.78 31.23 32.85 36.99 40.25 43.00 42.44 40.99 40.66 45.66 44.53 44.90 45.68 46.45 46.57 45.79 49.27 49.65 50.19 51.30 51.30 50.75 51.11 51.47 50.72 51.17 50.68 50.79 49.30 49.04 48.92 48.07 47.74 47.08 45.59 43.18 42.15 40.84 39.53 39.57 39.38 38.81
40.09 37.77 33.57 33.42 30.43 27.98 38.23 44.69 47.08 46.18 35.39 45.89 46.43 45.90 45.49 45.13 38.25 42.53 48.06 50.50 50.17 50.66 51.25 50.43 50.04 49.70 49.32 47.60 48.56 47.67 46.62 46.46 46.12 46.32 46.03 45.48 44.56 43.60 42.15 41.17 40.46 40.02 39.91 40.15
31.28 31.25 29.79 30.49 29.34 33.64 43.94 46.61 48.21 35.83 36.04 47.69 47.62 47.48 47.03 43.87 45.02 47.29 49.15 48.76 50.18 50.26 49.40 48.85 48.61 47.26 46.08 46.79 46.95 44.72 44.36 44.05 45.67 46.18 45.29 44.25 43.56 42.53 42.07 41.34 40.36 39.80 38.76 38.05
31.86 31.37 31.70 33.75 29.65 28.96 44.56 45.82 40.98 42.32 46.81 48.59 47.87 47.06 47.08 48.01 48.13 49.13 49.20 48.43 48.56 47.75 48.04 47.91 46.84 45.97 45.65 46.03 45.68 43.63 43.01 44.30 44.33 43.70 43.11 42.74 42.31 42.58 42.00 40.20 39.61 39.94 38.45 35.62
32.35 35.63 34.09 37.65 35.51 43.43 44.85 45.73 47.12 49.19 48.71 49.65 47.32 50.27 49.86 48.11 47.94 47.94 47.43 47.34 47.43 47.43 46.93 46.87 45.74 44.93 45.02 45.27 45.24 42.78 42.53 43.79 43.28 42.43 41.80 41.36 41.71 41.49 40.77 38.28 35.38 34.24 33.67 29.58
40.39 42.97 37.61 37.42 40.52 42.76 44.19 47.05 48.67 50.39 49.92 51.55 51.31 50.96 49.85 48.15 47.85 46.59 46.76 46.19 46.10 46.04 45.44 45.97 45.43 44.34 43.11 44.51 44.24 43.31 43.44 43.33 41.78 39.67 37.70 36.22 35.07 33.76 32.42 33.60 31.33 28.75 26.39 26.33
40.45 41.92 40.13 39.14 41.93 44.17 46.18 47.78 49.53 50.10 50.86 50.72 51.17 50.30 49.73 48.67 47.81 47.90 46.23 45.62 45.52 45.64 44.71 45.57 44.38 43.22 41.94 43.25 42.66 42.87 41.53 39.98 37.46 35.61 34.28 32.91 31.01 28.78 27.29 27.85 25.96 23.98 25.29 26.42
41.24 39.50 36.60 35.35 43.58 43.86 45.58 48.98 49.52 47.98 50.36 50.86 50.81 49.86 49.46 49.26 47.44 47.13 45.44 45.39 45.46 43.86 44.23 43.58 42.25 40.60 40.29 40.22 39.53 39.30 39.43 37.53 34.53 32.65 31.16 28.55 27.98 27.62 26.78 25.90 25.08 27.30 27.00 27.14

GFSCGP_sfc_wetblb_042.txt.gz
Wetbulb
44.66 39.29 36.49 38.67 40.07 41.45 40.73 39.25 37.78 41.24 46.64 46.51 44.65 43.24 44.93 49.47 51.86 50.14 48.84 48.91 49.85 52.58 53.48 53.46 53.14 52.61 52.97 52.60 52.49 53.62 53.97 54.50 54.40 54.59 54.85 54.01 52.54 51.25 52.82 53.54 56.07 58.74 58.77 60.24
41.18 38.09 42.65 44.05 43.40 42.09 41.39 39.29 39.33 41.80 46.37 45.32 43.36 43.39 43.70 48.00 49.75 51.78 49.73 49.96 51.27 52.68 52.63 52.71 52.38 51.61 51.32 51.51 52.47 53.01 53.68 53.58 53.81 54.66 54.50 53.46 53.25 52.01 53.58 54.38 56.59 59.74 60.40 60.42
39.15 41.82 45.81 44.03 42.49 41.26 41.27 39.62 39.81 39.49 43.39 42.65 43.91 41.13 43.63 47.54 50.27 51.22 53.31 52.00 53.34 52.68 52.14 52.07 51.97 51.66 50.88 50.77 51.52 52.88 53.25 52.82 53.64 53.87 52.56 51.02 51.94 53.57 53.62 54.85 55.93 58.37 60.33 60.42
40.75 45.19 43.82 42.75 41.66 42.62 38.81 44.91 43.10 41.41 39.03 34.12 40.50 31.44 42.29 45.12 46.66 49.05 50.86 51.05 52.67 52.52 53.41 52.85 52.20 51.48 50.87 50.66 51.86 52.79 53.39 52.60 53.25 53.68 52.11 51.40 52.05 51.55 54.40 55.92 56.42 57.92 59.92 59.99
40.49 42.33 41.96 41.23 42.75 44.99 42.08 46.03 43.10 42.95 38.72 36.09 37.53 33.37 36.88 45.29 44.77 46.75 49.14 50.20 51.80 52.53 52.86 52.75 52.92 52.27 52.20 51.34 50.89 51.44 52.57 52.70 53.64 54.02 53.22 52.11 51.83 53.84 55.96 53.35 54.87 57.20 58.51 59.46
43.05 46.38 44.57 44.08 46.52 46.05 46.86 43.80 42.98 41.36 37.85 30.37 36.58 34.82 34.10 40.85 45.42 47.66 50.35 50.82 51.63 52.95 53.21 53.80 54.59 53.96 52.39 52.44 51.44 51.80 51.54 52.20 55.59 54.63 54.52 54.22 53.90 55.35 56.18 53.76 54.36 56.56 58.14 58.97
41.87 43.10 46.08 46.37 42.09 45.40 43.13 38.44 31.62 29.97 29.32 28.59 39.31 36.96 37.77 42.67 46.92 49.63 50.67 50.88 51.79 53.32 53.46 53.73 54.06 53.66 52.73 52.13 52.50 52.88 53.24 53.66 55.65 56.45 55.79 55.60 56.26 56.76 56.32 55.16 55.27 55.98 56.87 56.40
34.15 31.90 41.94 45.66 43.22 41.18 40.70 38.98 31.04 26.22 25.94 30.89 39.18 33.56 38.50 46.71 47.77 50.32 52.82 53.02 53.29 52.16 53.82 53.82 54.38 55.01 54.69 53.32 53.54 54.03 54.62 55.09 55.97 56.60 56.42 56.67 57.42 57.92 57.84 57.13 55.31 58.01 58.52 59.01
33.90 34.70 43.82 45.54 45.98 44.52 40.94 36.06 41.69 34.72 35.33 31.07 34.18 39.17 43.56 46.61 46.51 46.72 48.02 52.26 52.77 53.05 52.65 53.95 54.93 55.21 55.67 55.82 54.94 54.79 55.53 56.60 57.10 57.22 57.22 57.23 57.79 58.08 58.05 57.04 56.57 57.50 59.41 59.42
39.74 34.19 42.35 44.34 45.62 45.22 43.23 44.21 35.19 34.35 27.57 26.37 32.99 34.45 35.75 42.49 45.23 45.35 44.50 49.49 50.85 51.54 53.47 53.54 54.85 55.65 56.56 56.81 57.19 56.93 57.00 56.74 57.49 58.04 58.37 58.46 58.31 58.69 59.08 57.66 57.40 57.70 55.35 55.90
41.14 38.61 37.64 42.06 40.29 39.64 39.71 38.04 39.38 38.57 35.10 28.40 27.42 31.50 41.80 43.70 45.60 46.25 46.94 47.42 50.19 49.82 50.62 53.16 53.90 55.85 56.78 57.76 57.61 57.34 57.55 57.60 57.69 58.43 58.73 58.57 58.67 59.04 58.53 57.93 57.66 56.88 56.84 56.26
42.47 38.00 33.72 37.20 43.42 45.01 42.53 41.39 40.77 33.36 33.01 33.92 30.43 34.44 45.01 44.83 45.64 46.55 46.35 47.29 47.66 48.98 49.51 52.27 53.12 54.52 55.68 56.18 57.08 57.97 58.11 58.45 58.92 59.26 59.42 58.60 58.25 57.69 58.28 58.42 57.64 57.32 57.38 57.00
43.66 37.49 30.13 34.33 38.87 41.37 39.32 40.98 42.49 40.78 37.51 33.29 29.53 33.84 46.49 44.96 44.58 46.70 44.88 46.93 47.21 49.32 49.86 50.55 50.61 52.28 53.64 54.87 56.31 56.81 57.78 58.26 59.32 58.71 59.50 59.37 59.14 59.07 59.58 59.58 58.26 58.72 58.08 57.30
46.24 40.81 36.24 30.68 34.72 38.71 37.42 40.78 41.69 40.61 31.59 32.56 33.73 37.80 42.67 44.05 44.19 44.99 44.82 46.09 46.34 48.27 50.30 51.04 50.72 51.81 52.30 53.87 55.54 56.49 57.00 58.53 58.58 57.49 57.70 58.04 58.38 59.29 59.84 59.78 57.59 56.84 54.86 53.56
44.81 37.35 38.41 39.48 40.96 40.81 40.42 40.61 40.75 39.22 38.39 34.57 37.17 38.50 43.36 44.47 45.85 46.80 47.34 47.16 48.22 47.63 47.63 50.53 51.08 51.70 52.95 54.81 56.13 56.91 57.59 58.38 58.63 57.75 57.37 56.83 57.98 59.18 57.83 55.37 54.53 53.20 52.64 51.58
42.09 36.75 36.02 33.95 40.07 40.42 38.35 40.64 41.45 41.66 40.84 39.37 40.01 39.76 46.34 48.56 47.95 46.99 47.05 48.03 48.05 47.78 47.78 50.65 52.13 52.63 54.96 55.77 55.51 55.93 56.32 56.62 58.55 58.72 58.64 57.33 56.58 55.90 54.24 52.20 50.11 48.86 48.56 47.71
38.92 35.45 33.07 29.01 36.65 37.56 32.36 38.50 40.76 41.37 42.22 42.54 37.29 42.18 46.31 45.76 46.77 46.65 47.44 48.51 48.41 47.58 47.38 47.81 52.39 53.87 55.44 55.74 55.42 54.53 54.81 55.52 55.70 56.06 55.94 55.42 54.50 53.02 51.41 50.25 48.44 47.35 44.83 44.03
36.74 35.00 33.73 29.49 32.47 27.06 38.62 42.86 43.52 42.02 42.37 43.01 42.23 42.98 45.59 47.37 48.80 47.66 48.41 49.31 48.09 47.61 47.38 50.44 53.18 53.64 54.48 53.73 52.78 52.41 53.34 52.60 51.42 51.18 50.94 50.62 49.95 49.55 48.88 46.52 44.16 41.44 41.64 41.16
41.26 36.01 31.21 28.64 29.50 34.81 38.02 41.67 40.00 38.93 39.59 43.83 42.90 44.65 44.58 45.53 42.95 44.64 47.89 50.12 50.05 47.66 49.02 52.18 54.26 52.95 52.53 51.74 51.15 51.00 49.99 49.32 48.96 48.74 48.17 47.53 46.39 45.04 43.62 41.29 40.22 39.12 39.03 38.48
38.55 38.20 33.20 30.53 26.08 26.52 35.80 43.00 46.47 44.76 33.74 43.81 45.81 45.03 44.39 44.57 36.29 40.10 46.84 48.06 47.43 49.31 50.94 50.54 50.52 51.13 50.35 48.76 49.66 48.53 47.26 47.36 46.34 45.39 44.29 43.97 42.87 41.58 39.89 38.97 38.27 38.07 37.91 38.18
31.52 31.30 30.33 29.44 27.95 33.28 41.84 43.07 46.46 35.37 35.62 45.59 46.54 45.90 45.16 41.71 43.06 45.16 47.36 48.37 49.36 50.31 49.38 49.12 50.31 50.26 47.69 47.84 48.16 45.97 45.14 44.38 44.72 44.31 43.46 42.75 41.94 40.67 39.92 39.40 39.08 38.26 37.61 36.80
30.57 29.33 28.49 31.34 28.67 27.96 43.95 43.42 38.57 41.99 45.53 47.96 47.75 45.71 45.21 45.35 45.85 46.49 47.62 47.60 47.75 47.25 47.07 48.02 46.85 45.83 45.50 46.58 46.12 44.02 42.95 43.20 43.44 42.95 42.13 41.44 41.34 41.44 40.64 39.45 38.97 38.74 37.24 33.50
30.90 34.91 32.35 33.85 33.07 43.25 45.50 45.07 46.27 47.68 46.84 47.27 46.76 47.72 46.94 46.39 46.16 46.90 46.64 47.19 47.32 47.47 46.86 47.01 45.48 43.87 43.47 44.64 45.43 42.32 41.35 42.66 42.36 41.60 40.91 40.86 40.75 40.56 39.81 38.16 36.75 35.52 33.62 31.19
37.08 40.59 36.99 37.84 40.32 41.47 44.27 45.57 47.49 47.40 47.62 48.91 48.75 48.86 49.22 46.75 47.13 46.13 46.37 46.02 45.93 44.94 44.72 44.98 44.35 42.98 41.61 42.88 43.12 42.11 42.25 42.26 41.36 39.94 38.93 36.88 32.75 31.92 31.35 30.73 31.50 30.12 27.59 27.90
37.48 40.66 38.59 38.01 40.91 42.65 44.37 46.45 47.35 46.62 48.83 49.12 49.00 49.24 48.18 47.31 46.92 46.76 45.83 45.28 45.14 44.10 44.30 44.95 43.45 41.92 41.04 41.85 41.36 41.39 40.85 40.06 36.67 34.15 31.79 29.51 29.04 28.36 25.57 24.63 25.48 26.29 26.90 27.25
39.51 38.52 35.91 34.20 40.85 40.23 41.74 45.95 47.18 46.59 47.97 48.43 48.02 48.65 49.70 49.47 48.38 46.84 45.12 44.27 44.49 43.40 42.98 41.82 40.85 40.13 39.48 39.24 38.23 38.01 37.37 35.68 32.83 30.21 28.48 27.00 26.33 26.18 25.12 24.45 24.59 28.35 28.13 28.34

GFSCGP_sfc_wetblb_045.txt.gz
Wetbulb
42.79 38.10 35.29 37.47 39.15 39.14 38.77 36.50 35.02 38.02 42.04 42.79 42.99 42.36 43.55 47.80 50.64 48.92 48.99 48.02 50.42 51.62 52.47 52.61 53.69 53.73 53.79 54.10 54.52 54.77 55.09 55.57 56.05 55.51 55.19 54.58 53.47 53.15 53.23 53.79 55.77 55.58 56.92 58.39
39.56 37.32 40.65 42.10 41.34 39.72 38.61 36.54 36.25 39.82 42.91 42.32 41.19 41.34 43.40 46.71 50.38 50.86 48.80 48.48 47.97 51.16 51.34 51.90 51.96 51.86 51.94 52.48 53.07 54.13 54.54 55.02 55.17 55.77 55.51 55.25 52.44 52.91 52.83 53.77 53.59 56.24 57.56 57.46
37.94 40.42 43.92 42.34 40.32 39.10 38.56 36.65 37.25 37.89 40.63 41.60 41.09 38.85 41.73 45.23 48.40 51.11 51.78 50.52 49.75 50.46 51.19 51.52 51.52 50.88 49.99 50.64 51.39 52.66 54.07 54.50 55.04 55.16 52.83 51.59 52.75 52.45 51.53 51.28 52.21 54.01 57.20 58.33
39.50 44.67 42.30 40.43 39.86 40.07 35.39 41.63 41.55 40.26 36.63 33.24 40.47 30.87 36.93 43.11 44.54 48.30 50.31 50.87 49.98 51.34 52.70 52.05 51.38 50.77 49.56 50.22 51.54 52.46 53.20 53.73 53.98 53.04 51.74 51.01 51.47 50.59 51.48 51.04 51.85 53.40 56.31 58.15
39.64 40.10 39.89 39.44 40.77 42.26 39.02 43.30 41.49 40.96 36.61 35.10 35.58 32.03 35.82 42.96 42.19 45.46 48.21 49.88 50.95 51.89 52.83 52.01 51.39 51.81 50.75 50.96 50.78 51.97 52.80 52.89 53.08 52.70 52.10 50.90 50.10 51.31 51.66 52.18 52.80 53.53 55.04 57.51
42.33 44.50 42.85 41.58 43.88 43.52 44.81 41.89 40.28 38.55 36.19 29.81 35.56 33.52 32.34 38.50 43.18 45.05 48.09 49.51 50.56 51.96 52.89 53.73 53.10 52.47 51.48 50.75 50.82 51.25 51.95 52.45 52.77 52.78 52.35 51.03 50.65 49.99 51.20 52.73 53.02 53.95 54.04 56.07
39.89 41.79 43.61 44.75 40.25 42.93 41.10 36.10 29.12 27.76 27.22 28.29 36.85 34.21 35.98 40.81 44.43 46.84 47.44 49.35 50.21 52.34 52.17 52.87 52.27 51.76 51.19 50.24 50.15 50.54 51.03 51.45 52.44 52.56 52.71 52.39 51.27 50.70 51.59 53.16 53.79 53.79 53.75 54.25
33.29 30.54 40.83 44.09 42.35 39.09 38.56 37.41 29.19 25.11 24.87 28.94 37.09 32.32 37.40 44.17 45.95 46.97 49.12 50.33 50.30 51.01 52.36 52.53 53.08 52.90 52.25 51.26 49.94 50.43 50.70 51.04 52.01 52.61 52.62 53.18 53.22 52.73 52.97 53.73 54.89 54.67 54.72 55.52
31.91 32.85 41.56 43.23 44.31 43.13 38.49 34.54 39.61 32.75 32.45 29.09 32.33 36.38 41.66 44.50 44.69 45.26 46.60 49.07 48.64 50.01 52.14 52.62 53.53 53.79 53.37 52.20 51.31 50.18 50.74 50.85 51.65 51.82 53.98 53.57 53.82 53.53 53.87 54.64 55.57 55.51 55.79 57.38
37.65 32.33 40.44 42.50 43.28 42.68 41.22 41.69 33.43 32.27 26.49 25.81 30.45 32.50 33.99 39.36 42.72 44.24 44.11 45.46 48.39 50.96 51.58 53.24 53.75 54.19 54.80 54.13 52.85 52.63 51.71 51.64 52.15 52.59 53.17 55.00 54.90 55.08 55.34 55.95 55.79 55.12 55.53 55.93
39.24 36.41 35.92 40.42 38.12 37.40 37.68 35.75 37.11 36.83 32.48 28.54 26.96 30.00 39.94 41.87 43.10 43.94 44.21 46.02 48.28 49.27 51.31 52.18 53.87 54.67 55.41 55.59 54.37 52.97 52.97 52.71 53.00 54.21 54.83 55.49 55.77 55.99 56.68 57.02 57.58 56.11 55.45 55.85
42.22 36.06 30.78 36.14 42.28 42.61 39.55 38.08 38.11 32.64 30.80 31.98 29.08 33.90 43.14 43.30 44.01 44.46 45.01 46.44 45.10 48.65 50.01 52.63 52.84 54.28 54.69 54.97 55.67 54.96 54.16 53.88 54.83 56.00 56.25 56.69 57.27 57.66 57.56 57.77 57.69 57.27 57.05 57.38
43.24 37.00 29.22 31.94 37.39 39.15 36.87 38.53 39.25 38.31 35.11 33.31 29.21 33.20 44.72 44.45 43.78 44.70 44.46 44.42 45.22 45.76 47.59 49.51 50.78 51.71 53.96 54.94 55.46 55.82 56.31 56.08 56.47 56.77 56.71 56.91 57.39 57.65 57.77 58.08 58.29 57.78 58.46 58.01
44.59 39.27 36.73 31.89 33.68 37.78 35.11 38.47 39.85 38.91 31.20 31.03 34.00 36.07 40.65 43.28 42.99 44.01 44.53 44.74 44.49 45.70 47.76 47.71 49.04 51.36 53.06 54.24 55.18 55.92 56.49 57.00 57.28 57.28 57.08 56.90 57.54 57.93 58.27 58.41 58.41 58.32 58.08 57.80
42.48 34.08 36.48 36.73 37.24 38.29 37.14 38.46 39.51 37.38 37.76 34.04 35.88 36.66 40.83 43.05 44.41 44.67 46.40 45.42 45.84 45.21 46.90 48.03 48.34 49.05 50.36 51.65 53.40 54.72 55.56 56.54 57.35 57.26 57.29 57.50 58.07 58.60 58.44 58.21 58.44 58.16 57.79 57.33
42.69 33.60 35.56 32.01 38.01 36.61 34.62 37.16 38.07 39.46 38.87 37.23 38.06 37.00 43.70 45.67 44.82 44.47 45.55 46.15 45.58 46.38 46.50 48.08 49.47 49.91 50.91 53.07 54.22 54.72 53.84 53.92 56.31 56.69 56.89 57.38 55.95 56.45 56.73 56.09 54.36 53.06 51.67 51.09
37.81 35.24 32.57 27.29 33.08 34.13 28.91 34.99 37.36 39.61 41.25 40.32 36.34 40.72 44.12 43.68 44.90 45.27 46.65 46.33 46.42 46.87 46.63 46.76 48.46 51.53 52.33 54.62 55.04 54.63 54.02 55.56 55.99 55.86 55.81 55.60 55.43 55.31 53.36 52.22 51.16 49.78 47.94 46.64
34.66 33.37 32.09 28.56 30.17 22.51 33.91 39.50 39.98 39.36 41.47 42.78 42.59 42.98 45.08 44.66 45.63 46.66 48.26 48.33 47.56 47.55 46.76 46.41 47.64 50.35 52.70 53.67 52.57 52.52 53.99 55.13 55.81 55.93 55.33 54.79 53.50 50.96 49.83 48.87 47.61 45.11 45.16 44.20
38.34 33.37 29.53 24.79 25.58 30.64 32.95 38.10 38.32 35.55 36.55 42.99 42.26 43.50 44.61 45.53 43.16 41.97 46.02 47.40 48.35 48.67 49.13 48.87 48.32 50.51 53.05 52.71 51.93 51.98 50.99 52.32 53.05 51.88 51.50 51.10 50.68 49.02 47.45 45.24 43.40 41.80 41.48 41.09
38.20 36.58 28.20 30.15 22.28 19.53 32.27 39.72 43.99 43.56 34.20 42.82 44.83 42.58 43.80 43.99 37.46 40.60 45.25 46.39 46.72 46.69 46.28 48.52 50.30 51.66 52.12 50.53 51.30 50.02 48.64 49.07 49.51 49.23 47.82 48.44 48.21 46.63 44.00 40.97 40.48 38.08 38.33 37.90
31.91 31.80 30.41 30.07 28.14 29.01 37.89 41.87 44.79 33.07 33.47 43.67 46.31 44.92 43.91 39.88 44.58 45.89 45.20 44.69 46.23 46.74 48.77 50.09 50.76 50.91 50.65 49.91 49.89 47.89 47.13 46.16 45.62 45.08 44.19 44.32 44.37 42.66 40.12 38.31 38.21 37.17 36.77 35.66
29.60 29.05 28.12 30.95 28.47 25.53 41.83 43.11 37.06 41.09 43.95 45.40 46.92 45.80 44.44 45.00 43.92 45.10 45.10 45.84 46.78 47.12 47.91 49.15 48.40 46.65 47.71 48.48 48.18 45.67 43.88 43.64 43.17 42.64 41.24 40.77 40.44 39.89 38.90 37.72 37.41 37.16 35.63 33.22
28.27 31.29 28.65 31.61 30.84 40.34 44.77 44.30 45.76 45.82 45.26 46.36 46.51 47.36 46.59 45.03 44.31 45.22 44.99 45.39 46.28 46.67 46.51 47.31 45.73 43.75 43.78 44.97 46.12 42.54 42.22 42.30 41.66 40.88 39.99 39.50 39.18 38.83 38.23 37.04 35.74 33.91 33.50 31.67
34.28 37.68 33.67 34.15 38.36 40.20 42.33 44.89 45.95 47.31 47.32 47.91 47.78 47.29 46.98 45.41 45.25 43.77 44.18 44.26 44.21 43.77 43.68 44.13 44.27 42.66 41.39 42.41 42.64 42.23 42.41 41.71 40.91 39.15 37.03 35.32 33.30 31.14 31.47 31.27 32.63 31.41 31.66 30.86
33.86 37.36 35.02 35.24 39.55 41.90 43.41 44.48 45.84 46.88 48.13 47.10 48.70 47.49 47.50 47.27 45.71 44.13 44.31 44.04 43.67 43.32 43.56 43.20 42.29 40.90 39.99 41.10 40.74 41.18 41.14 40.24 35.51 32.62 31.40 29.48 28.09 27.83 27.09 27.30 28.28 27.55 27.70 29.65
37.54 36.04 33.23 31.51 40.46 39.73 41.30 44.05 46.13 46.01 45.98 47.69 47.43 47.12 47.51 48.16 47.91 45.98 44.06 44.23 43.62 42.25 42.01 40.39 39.98 39.47 38.23 37.92 36.71 36.74 37.30 35.29 32.00 29.34 28.51 27.00 25.91 25.35 25.30 24.73 24.91 28.76 28.97 29.13